GEFSGL_500_meanwind_000.txt.gz
Wind_Speed
74 72 71 70 69 66 59 52 48 51 53 51 52 51 49 48 49 50 46 42 41 41 43 41 38 37 37 36 33 32 32 32 34 35 32 28 25 24 21 22 26 28 29
56 52 50 48 49 50 53 52 50 52 52 50 49 46 42 39 38 36 34 34 34 31 29 29 30 32 32 32 32 34 32 33 37 33 30 26 23 20 27 26 25 34 32
51 46 45 46 48 53 52 52 55 54 49 45 42 41 37 33 30 28 28 27 25 24 25 25 25 27 30 31 30 30 30 28 29 28 24 22 23 22 26 30 28 36 32
45 43 47 52 57 58 54 54 53 46 40 35 33 31 28 25 25 24 21 20 22 25 26 26 24 23 27 27 27 27 24 22 23 22 20 20 22 24 25 28 30 38 24
52 53 56 62 58 50 48 45 38 33 30 27 24 23 24 21 19 18 20 23 25 25 21 18 17 20 21 20 19 19 18 17 19 20 19 17 19 23 23 25 24 29 23
55 59 62 53 44 40 36 31 26 23 22 20 20 20 17 17 19 22 22 19 15 11 9 11 13 15 13 11 10 11 13 15 15 14 15 18 19 20 20 21 21 29 26
57 53 43 33 30 29 24 20 19 18 17 16 16 16 18 21 23 23 17 10 6 5 6 9 10 8 3 4 3 6 10 11 13 12 10 17 19 20 23 22 24 31 30
43 32 25 25 21 16 15 15 16 15 14 15 18 22 22 20 18 14 9 5 5 5 6 7 6 5 5 4 1 4 6 7 10 11 13 17 19 21 22 26 31 30 25
29 23 19 13 10 11 13 14 13 15 18 20 18 18 13 8 6 4 2 3 4 3 2 3 3 4 6 6 5 8 9 11 17 18 16 18 19 21 21 21 23 23 21
15 9 6 6 8 11 14 16 16 16 14 14 13 12 9 7 5 4 2 3 4 5 7 10 9 7 2 1 3 6 6 6 9 13 15 15 14 15 18 19 19 18 19
3 4 6 7 9 14 17 15 13 13 13 12 11 12 12 10 10 6 3 3 5 7 10 10 9 11 9 8 7 8 8 6 8 11 15 16 15 15 15 15 13 16 18
5 5 8 9 12 14 12 14 16 16 16 15 13 11 12 12 11 9 8 7 6 6 7 4 1 5 8 11 11 10 10 8 10 18 22 23 20 20 20 19 17 15 16
8 7 8 9 10 13 13 14 14 14 15 15 14 12 11 10 9 8 8 8 7 6 4 5 7 8 9 8 10 10 8 6 4 10 19 22 21 20 20 16 13 13 17
13 12 13 15 15 13 13 12 13 13 14 16 16 15 14 13 12 12 12 14 13 11 7 3 1 3 6 8 7 5 4 6 6 7 9 11 15 18 18 17 17 17 18
27 29 27 23 17 15 14 13 15 17 19 20 22 23 23 21 20 20 19 19 19 18 17 13 9 8 9 8 8 7 6 6 7 7 8 10 11 13 16 18 19 19 18
32 28 24 20 18 16 17 18 20 21 23 24 24 24 24 25 25 23 22 20 20 21 21 21 20 18 17 15 13 12 11 10 9 10 9 9 11 11 12 13 13 14 16
26 24 22 20 19 20 21 22 24 25 25 26 26 26 26 26 26 27 26 25 21 18 18 20 23 24 23 22 20 18 17 15 13 12 10 9 8 8 8 9 10 13 15
23 21 21 22 23 24 24 25 26 26 26 26 25 24 24 23 23 23 23 23 23 23 20 16 17 21 24 25 25 23 22 20 19 18 16 14 12 10 9 10 12 15 17
21 21 22 24 26 28 29 30 31 32 31 29 26 24 22 20 20 20 20 20 19 18 18 18 14 14 19 23 25 25 25 23 22 21 20 18 16 14 13 13 15 17 20
20 21 23 27 32 35 36 36 37 37 34 33 30 27 24 23 24 23 22 22 22 19 16 14 11 8 9 16 21 23 24 24 23 22 21 20 20 19 18 18 18 20 22
20 21 25 31 35 37 38 39 40 39 37 35 33 30 25 22 26 27 27 26 24 19 15 12 9 6 1 8 15 19 22 23 24 23 22 22 23 23 23 22 22 24 26
20 24 29 35 40 42 43 43 42 41 40 40 38 33 26 24 26 29 30 29 25 18 12 9 8 7 5 7 12 17 20 23 24 25 26 26 26 26 26 27 26 28 30
21 26 31 37 41 43 44 45 44 43 42 42 42 36 29 26 27 30 32 31 27 22 14 9 8 8 7 7 9 12 17 21 24 26 27 28 28 28 28 29 29 30 32
23 28 33 37 40 43 45 47 47 46 45 43 42 39 34 30 29 32 33 32 30 26 20 15 11 9 9 8 8 11 15 19 22 25 27 28 29 29 31 31 31 31 31
23 28 33 36 39 42 45 46 47 49 50 48 44 40 37 34 32 33 34 33 30 27 26 22 17 15 14 12 11 12 15 18 22 24 26 28 30 31 33 33 32 30 30
24 28 31 33 37 40 43 45 47 48 51 53 52 47 42 37 34 34 35 34 32 28 26 23 20 19 19 19 16 13 15 18 20 23 27 29 30 32 33 33 29 26 28

GEFSGL_500_meanwind_006.txt.gz
Wind_Speed
81 82 80 76 71 68 66 64 62 61 60 59 59 60 60 58 55 52 51 50 48 47 46 44 42 40 38 37 36 35 33 31 28 27 27 28 28 28 28 27 25 25 23
78 75 71 66 62 59 58 58 58 56 55 54 53 51 49 45 42 40 38 37 37 36 34 33 32 32 31 30 30 28 27 26 25 24 24 23 24 25 26 25 23 22 19
70 66 59 53 52 52 53 50 47 46 45 43 40 37 35 33 32 31 31 31 30 29 28 28 29 29 29 28 27 25 23 23 23 24 24 23 22 23 23 22 21 21 20
60 52 48 47 46 44 40 38 37 36 33 32 30 30 29 29 28 27 27 27 26 26 26 26 24 23 22 21 20 21 21 21 19 21 21 19 19 18 18 19 20 21 23
47 44 43 42 38 34 31 30 29 28 27 26 26 26 26 26 25 24 24 25 24 22 20 18 16 17 17 15 14 13 14 15 15 15 16 15 14 15 16 17 20 22 24
42 40 37 34 29 27 25 23 24 24 25 24 23 24 24 23 22 22 21 20 18 14 12 12 13 14 14 12 9 8 7 8 10 11 11 12 12 13 14 18 19 21 22
37 32 27 23 21 20 19 21 23 24 24 22 21 20 20 20 18 17 15 12 10 9 9 10 11 12 11 11 7 4 5 6 9 10 11 11 12 12 14 16 17 18 21
24 18 15 14 15 17 20 22 22 20 17 17 16 16 17 17 17 16 13 11 10 9 10 10 9 10 11 11 7 2 4 7 9 10 9 11 14 16 17 18 18 17 20
10 9 9 12 15 17 19 18 18 19 19 19 18 18 18 18 17 16 13 12 11 11 11 11 11 11 10 9 5 2 2 6 9 11 12 13 16 19 21 20 18 17 20
9 10 11 13 15 17 17 19 20 22 22 22 22 21 20 19 18 16 14 13 12 12 13 13 13 13 11 8 4 1 3 4 7 10 12 14 17 23 24 23 20 20 22
11 12 13 15 17 18 21 23 25 25 25 25 25 24 23 23 21 19 17 15 14 13 13 13 11 11 8 6 4 3 4 6 7 8 10 14 19 23 24 23 20 20 21
14 14 15 18 21 24 26 28 28 28 28 27 27 26 24 24 23 22 21 19 16 14 13 12 11 8 3 5 8 7 6 6 8 10 11 14 16 18 18 17 17 17 17
17 18 20 22 25 26 28 29 30 31 31 31 30 29 27 25 24 22 21 20 19 17 15 12 10 7 3 4 8 9 10 9 10 12 13 14 15 16 16 17 16 15 13
21 22 23 25 27 28 29 30 31 32 32 31 30 29 27 25 24 22 21 19 18 17 16 14 10 7 3 2 6 9 11 11 12 14 17 18 18 17 17 16 15 14 13
24 24 25 27 28 30 31 32 33 33 32 31 28 26 24 23 22 20 18 16 15 15 15 14 12 10 7 5 6 8 8 9 10 12 17 21 21 21 19 18 16 16 15
24 26 28 29 31 32 34 35 35 35 34 31 28 25 22 21 21 20 17 14 12 11 11 12 12 13 12 10 9 8 8 8 8 10 13 18 21 21 20 18 17 17 18
27 30 31 33 34 35 37 38 37 36 34 30 26 22 20 21 22 21 18 14 11 9 8 8 10 13 15 15 13 11 10 9 10 10 13 16 19 20 20 19 19 19 20
29 32 35 37 39 41 43 43 41 37 33 29 25 22 22 24 25 24 21 17 12 8 6 5 6 11 16 18 17 15 13 12 12 13 15 17 18 20 20 20 19 18 19
29 33 36 39 42 45 47 46 43 38 34 30 27 26 25 26 27 26 24 19 12 7 4 3 3 7 14 19 20 20 18 16 15 15 16 17 18 19 19 20 20 20 21
29 33 36 40 43 46 48 48 45 41 38 35 32 30 29 29 28 27 26 22 15 8 5 4 3 3 11 18 22 24 24 22 20 19 18 18 18 18 19 20 21 22 23
30 33 37 40 42 45 47 48 47 44 41 39 37 35 34 32 31 29 28 24 19 13 10 9 8 3 7 15 22 25 27 27 25 24 22 21 20 19 20 21 22 23 25
29 33 36 38 41 43 46 48 49 47 44 41 40 40 38 35 32 30 28 25 21 16 12 10 10 8 4 9 17 23 27 29 28 28 26 24 23 22 22 22 23 25 27
28 32 35 37 39 42 45 47 49 50 48 44 42 42 42 38 33 31 29 26 23 19 15 10 8 7 6 7 11 18 24 27 28 29 28 27 26 25 24 23 24 26 28
28 31 34 36 38 40 43 46 49 50 50 48 45 44 44 41 35 32 29 26 23 22 20 16 12 8 7 8 10 14 19 23 26 27 28 28 27 26 25 25 24 26 28
29 31 33 35 37 39 42 44 46 49 50 50 49 47 45 44 40 34 31 28 24 21 20 19 17 13 11 11 13 14 17 21 24 25 26 26 26 26 26 25 25 25 27
29 31 34 36 38 40 42 43 45 47 48 50 50 50 48 46 44 39 35 32 28 23 21 19 18 16 15 15 16 17 18 20 22 23 23 22 22 23 24 24 24 25 27

GEFSGL_500_meanwind_012.txt.gz
Wind_Speed
67 71 74 77 79 79 76 71 64 55 50 49 48 47 45 43 41 40 39 38 37 37 36 35 33 32 31 30 31 32 32 31 28 25 24 24 23 22 22 22 22 22 22
73 76 78 78 76 71 63 55 48 45 43 42 41 40 39 37 37 36 36 35 35 34 32 31 29 28 28 28 29 28 28 27 26 21 19 19 18 17 17 17 16 16 17
76 76 75 70 63 55 48 42 40 38 37 36 36 35 35 35 35 34 33 32 31 30 28 27 25 25 25 25 24 24 24 23 22 18 16 17 16 16 15 14 14 15 15
71 66 60 52 45 40 36 34 33 31 31 32 32 32 32 31 31 30 29 27 26 24 22 21 20 20 20 21 22 22 21 19 16 14 15 15 15 15 15 14 14 13 14
55 48 41 35 31 28 27 26 26 27 28 28 28 27 27 26 25 25 24 22 20 18 16 15 15 16 17 18 18 17 15 13 11 12 13 13 15 16 15 14 14 14 15
38 32 27 24 22 21 22 23 24 25 26 26 26 26 25 24 24 22 21 19 16 15 14 13 13 13 14 15 15 12 9 7 7 9 11 12 14 16 15 13 12 12 14
26 22 20 19 19 20 22 23 24 26 28 28 28 27 26 25 24 22 20 18 16 14 13 13 12 13 13 13 12 7 5 4 5 7 10 12 14 14 13 12 12 12 13
18 18 18 19 21 23 24 26 28 29 29 29 28 27 26 25 24 22 20 18 15 13 13 13 13 12 11 11 9 4 2 5 7 10 12 14 15 14 12 12 13 13 13
16 18 20 22 24 26 28 29 29 30 30 30 29 28 27 25 24 23 21 19 17 15 13 12 12 11 9 8 6 3 4 7 10 12 14 15 16 14 13 12 13 14 14
17 20 22 25 27 29 30 31 32 33 32 31 30 28 26 25 23 22 21 20 17 15 13 12 10 9 6 5 2 2 5 9 11 13 15 17 16 15 15 15 15 15 15
18 21 24 27 29 32 34 34 35 34 33 32 30 28 25 22 20 19 20 19 18 16 13 11 8 6 3 4 5 5 7 10 11 13 15 16 17 18 17 16 16 16 16
20 23 26 29 32 35 36 35 34 33 31 30 28 25 23 20 18 16 15 16 15 14 13 11 8 4 3 7 8 8 9 11 12 13 14 15 16 19 18 18 18 18 19
22 25 29 32 35 38 38 36 34 32 30 28 25 23 20 20 19 16 13 12 11 11 12 12 11 7 6 10 11 11 12 12 13 14 14 16 18 19 18 19 20 19 19
23 27 31 35 38 40 40 38 35 32 30 27 25 22 20 19 20 19 17 13 10 9 10 13 14 12 10 12 14 14 14 14 14 15 15 17 20 20 20 20 20 19 17
24 28 32 36 39 40 40 39 36 32 30 28 26 23 21 20 19 18 17 14 10 7 8 12 16 17 15 15 16 17 16 16 16 16 18 19 20 22 22 22 21 19 16
24 28 32 35 38 40 40 39 36 33 31 30 28 26 23 21 19 18 15 13 9 6 6 10 16 19 19 17 18 18 18 17 17 18 19 20 22 23 23 22 21 18 15
25 28 32 35 37 38 39 39 38 35 33 32 30 28 25 22 20 18 15 11 6 5 5 7 13 20 21 20 19 18 18 17 17 19 21 22 24 24 23 22 20 17 15
25 28 31 34 36 38 38 38 38 37 35 34 31 28 25 23 21 18 15 11 3 4 5 5 10 17 22 22 20 18 17 17 17 19 22 24 26 25 24 22 19 17 16
26 29 32 34 36 38 38 39 39 38 36 34 31 28 26 23 21 18 16 12 6 4 5 5 7 14 21 23 22 20 18 17 18 19 21 24 26 26 24 22 20 18 19
27 30 33 35 37 38 39 39 39 39 37 35 31 28 26 23 21 18 15 12 9 6 5 4 5 10 18 23 23 22 20 19 19 19 21 23 24 25 24 22 21 21 23
28 32 35 37 38 39 39 40 40 40 39 37 34 30 27 24 20 18 15 11 9 7 6 4 4 9 16 22 24 24 23 21 21 21 21 22 23 24 23 23 23 25 26
30 34 37 38 39 39 40 40 41 41 41 39 36 32 29 25 21 18 16 12 8 6 5 5 5 8 14 20 23 24 24 23 22 22 22 23 24 25 25 25 25 26 26
31 34 37 39 40 40 40 40 41 41 42 40 38 35 32 28 24 21 18 15 12 9 6 6 6 8 12 18 22 24 24 24 23 22 22 23 24 24 25 25 26 26 26
31 34 37 39 39 40 40 40 41 42 42 42 39 36 34 32 29 26 22 18 15 12 10 9 9 9 11 16 19 22 23 24 23 23 22 23 23 24 24 25 26 27 27
30 33 36 38 39 40 40 40 41 41 42 43 41 38 36 34 32 31 28 23 20 17 14 12 11 11 12 14 17 19 20 21 21 21 21 22 23 24 24 25 25 26 26
30 33 36 37 38 39 39 40 40 41 42 43 43 41 38 36 35 34 33 30 25 22 19 17 15 14 14 15 16 17 18 18 18 18 18 20 21 23 23 24 24 25 25

GEFSGL_500_meanwind_018.txt.gz
Wind_Speed
55 58 60 62 63 61 57 52 48 45 42 40 38 36 35 35 35 36 36 36 36 36 36 35 34 33 32 31 30 28 28 27 26 23 24 25 26 27 25 23 21 20 21
57 60 61 60 56 50 45 42 40 38 37 37 36 36 35 35 35 35 35 35 34 34 33 31 30 29 28 26 24 24 23 25 24 22 22 22 22 20 18 16 15 14 15
59 59 57 50 44 40 39 38 38 38 38 38 38 38 37 36 37 37 37 36 35 33 32 29 28 26 24 22 20 20 21 23 23 21 20 19 18 16 14 12 11 11 12
57 53 45 39 36 36 36 36 37 38 39 40 40 40 40 40 40 40 38 37 35 34 31 29 26 23 21 19 19 20 21 21 20 19 17 16 14 12 10 9 9 9 10
49 41 35 33 33 33 34 35 37 39 40 42 42 43 42 41 41 39 37 37 35 33 31 28 25 22 20 18 18 19 20 19 17 15 13 11 10 10 9 8 7 7 8
39 33 30 30 30 31 33 35 38 40 42 43 43 42 41 40 39 38 37 35 34 32 30 27 25 22 19 18 18 18 17 15 13 11 9 8 9 9 9 8 7 6 7
30 27 27 27 28 30 34 37 39 41 42 43 42 41 39 38 37 36 35 33 31 30 28 26 24 21 18 17 16 15 14 12 10 7 6 7 9 9 8 7 5 4 4
24 24 24 26 29 32 35 39 41 42 43 42 41 39 37 35 34 33 32 30 29 28 26 24 22 20 18 15 14 13 11 8 6 4 5 7 9 10 8 7 4 2 0
21 22 24 27 30 34 38 41 42 43 42 41 39 37 36 34 31 29 28 27 26 25 24 22 20 18 16 14 12 10 7 4 3 4 6 8 10 11 9 7 5 4 4
20 22 25 29 33 37 41 43 43 43 42 40 39 37 35 33 30 27 24 23 22 22 21 20 18 15 13 11 8 6 5 4 5 6 8 9 11 11 10 8 7 7 7
20 24 28 32 36 40 43 43 43 42 41 39 38 36 34 32 30 26 23 21 20 19 18 17 15 13 10 9 6 6 6 6 8 9 10 10 10 10 9 9 9 10 10
22 27 31 36 40 42 43 42 41 41 40 38 36 35 34 32 29 26 22 19 18 17 16 14 12 11 10 8 8 8 9 10 10 11 12 11 10 10 10 11 12 13 13
25 30 34 38 41 42 41 40 40 41 40 39 36 34 32 30 29 26 22 19 16 14 13 11 9 9 10 10 11 11 12 12 12 13 13 13 12 11 12 13 14 15 17
28 32 37 40 41 41 40 40 40 41 40 39 36 33 30 29 27 24 22 18 14 11 10 8 6 8 11 12 13 14 14 14 14 15 15 14 13 13 14 15 17 18 19
30 34 38 40 40 40 40 41 40 40 39 37 35 32 29 26 24 22 19 16 11 8 6 5 5 9 12 14 15 15 16 16 17 17 17 15 14 14 15 17 19 20 20
32 36 38 38 39 39 41 40 40 39 38 35 33 30 28 25 23 20 17 14 9 4 3 2 5 9 13 16 17 17 17 18 18 18 18 17 16 17 17 18 19 19 19
32 35 36 37 37 38 39 40 40 39 37 34 31 29 26 24 21 19 16 12 6 1 2 2 5 9 13 16 18 18 18 19 19 19 20 20 19 19 19 19 19 18 17
33 35 36 37 37 38 39 40 41 40 37 34 31 28 25 22 20 17 15 10 5 4 4 4 5 9 12 16 17 18 19 19 20 20 20 22 22 21 20 20 18 17 14
33 35 36 36 37 37 38 39 40 39 36 33 31 28 25 21 18 15 12 10 7 6 5 5 6 9 11 14 16 18 19 20 20 20 21 21 22 22 21 20 17 14 11
33 34 35 36 36 36 37 38 39 38 35 32 30 29 26 22 19 14 10 9 8 7 6 6 7 9 11 12 14 16 18 19 20 21 22 22 22 22 21 19 16 13 10
33 34 34 34 34 35 36 38 39 38 36 33 32 31 28 24 19 15 11 9 8 8 7 7 7 10 12 12 13 14 16 17 18 20 22 23 23 22 21 19 16 13 11
32 32 32 33 33 34 35 37 38 38 37 35 34 32 30 26 21 17 13 10 8 8 8 7 7 10 12 13 13 14 14 15 16 18 20 22 23 23 22 19 17 14 12
31 31 32 32 32 33 34 36 37 38 37 36 35 33 31 28 24 20 16 12 10 8 8 8 7 9 12 13 13 13 13 14 15 16 18 20 22 22 21 19 17 15 14
30 30 31 31 31 31 33 34 36 37 37 37 36 34 32 30 26 23 20 17 14 11 9 9 9 9 11 12 12 12 12 13 14 15 16 17 18 19 19 18 18 17 18
29 30 30 31 30 31 32 33 34 35 36 37 36 35 34 31 28 25 23 21 18 16 13 11 11 12 13 13 12 11 11 11 12 14 16 16 16 17 18 18 19 20 20
29 29 30 30 30 31 32 32 33 34 34 35 35 35 34 32 29 25 23 21 20 19 17 15 14 14 14 14 14 13 12 12 12 13 15 16 17 17 18 19 19 20 20

GEFSGL_500_meanwind_024.txt.gz
Wind_Speed
56 59 61 61 60 60 58 52 47 44 40 38 38 39 41 44 46 48 49 50 51 50 49 48 46 45 43 40 39 37 35 33 28 24 25 27 28 29 29 28 27 26 27
59 61 61 59 59 58 52 47 42 39 37 37 39 42 45 48 50 51 52 52 51 50 48 46 45 43 40 38 36 34 32 30 26 22 23 24 25 26 25 23 22 22 22
61 61 60 59 58 53 46 41 38 37 38 39 42 45 49 51 53 53 53 52 51 48 46 43 42 40 38 35 33 31 29 27 24 21 21 23 23 22 21 20 19 18 18
61 60 58 57 54 46 41 39 38 38 40 43 47 50 53 54 54 53 52 50 48 46 43 41 39 37 34 32 30 28 26 24 22 20 20 20 19 18 16 15 14 14 14
60 57 57 54 47 41 39 38 39 41 44 48 51 53 54 54 53 51 49 47 45 42 40 38 36 33 30 28 26 25 22 20 19 18 17 16 14 13 12 11 10 10 11
57 55 54 48 42 39 38 39 42 46 49 52 54 54 54 53 52 49 47 44 41 39 37 35 32 29 26 24 22 20 19 17 15 15 14 12 11 9 8 8 7 8 9
54 53 48 42 39 38 39 42 46 49 52 53 53 53 53 52 49 46 44 41 38 36 33 30 27 24 21 19 18 16 15 14 12 11 10 9 7 6 6 6 6 6 7
51 47 42 38 37 39 42 46 49 51 52 52 53 52 51 49 47 43 41 38 35 33 30 26 23 20 17 15 14 13 11 10 9 7 6 5 5 5 5 4 3 3 3
46 41 37 36 38 41 45 47 49 51 51 51 51 50 48 46 43 40 37 34 32 30 26 23 19 16 13 11 11 10 9 7 7 6 5 5 6 5 5 4 2 1 2
40 36 35 37 40 43 45 47 48 49 49 49 48 47 44 42 39 36 33 31 29 26 23 19 16 12 9 9 9 9 8 8 8 7 7 7 7 6 6 4 4 4 5
33 33 35 38 41 43 44 45 46 47 47 47 46 44 41 38 35 33 30 27 25 22 19 16 12 7 7 8 10 11 11 11 10 10 10 10 9 8 7 6 6 7 9
31 33 36 39 40 42 43 43 44 44 45 45 43 41 39 36 33 30 27 24 21 18 14 10 7 4 8 11 12 13 14 14 13 13 13 12 11 10 9 9 9 11 14
31 34 37 38 39 40 41 42 42 43 43 43 41 38 36 33 30 27 24 21 17 13 9 5 2 6 11 14 15 16 17 17 16 15 14 12 11 10 11 11 12 15 18
32 35 36 37 38 38 39 40 41 42 41 40 37 34 32 30 27 24 21 17 13 8 4 1 4 10 14 16 18 19 19 18 17 16 15 13 11 11 13 14 16 19 21
32 34 36 36 36 37 37 38 39 40 39 37 34 31 30 27 24 21 17 13 8 4 1 4 8 13 16 18 20 20 20 19 18 17 15 14 13 13 15 17 20 22 24
32 34 35 35 36 36 36 37 38 38 37 35 33 31 28 25 21 17 13 8 5 4 5 7 11 15 17 20 21 21 20 19 19 18 16 15 14 15 17 20 22 24 25
32 33 35 35 36 36 35 36 37 37 37 35 33 30 26 22 17 14 10 7 6 6 7 10 13 16 18 20 21 21 20 19 19 19 18 16 15 17 19 21 23 24 25
32 33 34 35 35 34 34 35 36 37 36 35 32 29 24 19 14 12 10 8 8 8 9 11 14 16 18 20 21 21 20 20 20 19 18 17 17 19 20 21 22 22 22
32 33 33 34 33 33 33 34 35 36 35 34 31 27 23 18 13 11 10 9 9 9 10 12 14 16 18 19 20 21 21 20 20 19 18 17 18 19 20 20 20 20 20
32 33 33 33 33 33 33 33 33 34 33 32 29 25 22 19 14 11 10 9 9 10 11 13 15 16 17 18 19 20 21 21 21 20 19 18 18 19 19 18 18 17 17
32 32 32 32 32 32 31 31 32 32 32 31 29 26 22 19 15 11 9 9 10 10 12 14 15 16 17 17 18 19 20 20 20 20 19 18 18 18 18 17 16 15 14
31 31 31 32 32 31 31 31 30 30 30 30 29 26 23 20 15 12 10 9 9 10 12 13 15 16 16 16 17 18 18 19 20 20 20 19 18 18 16 15 14 13 12
30 31 32 32 32 32 31 30 29 29 28 28 28 26 23 21 17 13 10 9 9 10 11 12 14 15 16 15 15 15 16 17 18 19 20 19 19 18 16 14 13 12 10
31 32 33 33 33 32 30 29 28 27 28 27 27 25 23 22 19 16 13 10 10 10 11 12 13 14 15 15 15 14 15 15 16 18 19 19 19 18 16 14 13 11 10
33 34 34 34 33 32 30 28 27 26 27 27 27 26 24 22 20 18 16 14 12 11 11 12 13 13 14 14 14 13 13 14 15 16 17 18 18 18 17 15 13 12 11
35 36 36 35 33 31 29 27 26 26 26 27 27 27 25 23 21 19 17 16 15 14 13 13 13 14 14 15 14 14 13 13 13 14 15 16 17 17 17 16 15 13 13

GEFSGL_500_meanwind_030.txt.gz
Wind_Speed
48 47 46 47 49 54 57 58 57 55 53 50 48 45 44 44 45 47 51 54 57 60 62 62 62 62 60 58 57 54 51 49 46 40 38 37 38 36 33 30 28 28 28
49 47 47 48 52 55 56 55 54 52 50 48 45 44 44 46 48 51 54 58 60 61 62 62 60 59 56 53 50 48 46 44 41 36 33 33 33 32 29 27 25 25 26
46 45 47 50 52 53 52 52 51 50 48 46 45 45 46 49 52 55 57 59 61 62 61 59 56 53 49 47 44 43 41 39 37 32 28 28 28 27 24 23 23 23 23
43 44 47 49 50 50 50 50 49 48 46 45 45 47 49 52 55 56 58 59 60 59 57 54 50 46 43 41 39 37 36 34 31 27 23 23 23 22 20 20 20 20 20
45 46 47 48 48 48 49 49 47 45 44 45 47 50 52 54 56 57 58 58 57 54 50 47 44 41 38 36 34 32 30 27 24 21 19 18 19 18 17 16 16 16 17
45 45 46 46 47 48 48 46 45 44 45 47 49 51 53 55 56 56 56 55 53 48 44 41 39 37 34 31 29 27 24 21 18 17 14 14 14 14 13 12 12 12 13
43 44 45 46 47 46 45 44 44 45 47 49 50 52 53 54 54 54 52 50 46 42 39 37 35 33 30 26 24 21 18 15 13 11 10 10 10 10 10 9 9 9 10
42 43 44 45 45 44 44 44 45 47 48 49 50 51 52 52 51 49 47 44 40 37 35 33 31 28 25 21 18 15 12 9 8 7 8 8 8 9 8 6 5 5 5
42 43 43 43 43 43 43 45 47 48 48 49 50 50 50 49 47 45 42 39 37 34 32 29 26 22 19 16 12 9 7 5 5 7 8 8 8 8 6 5 3 1 2
41 42 41 41 41 43 44 46 46 47 47 48 48 48 46 45 43 41 38 35 33 31 28 24 20 16 13 10 6 4 4 6 8 9 9 8 8 7 5 4 2 2 3
39 39 39 40 41 43 45 45 45 46 46 46 46 45 43 41 39 37 34 31 29 26 22 18 14 10 7 4 2 5 8 10 11 10 10 9 9 7 6 5 5 6 8
36 36 38 40 42 44 44 44 43 43 43 43 43 42 41 38 36 33 30 27 24 20 16 12 8 4 1 3 7 10 12 13 13 12 11 10 9 8 7 7 8 10 12
33 36 38 40 42 42 42 42 41 41 41 41 40 39 37 35 32 28 25 22 18 15 10 6 4 3 6 9 11 14 15 15 14 12 11 10 9 9 9 10 12 14 15
33 36 38 40 40 40 40 39 38 38 37 37 36 35 33 30 26 23 20 17 14 10 5 4 5 8 11 13 15 17 17 16 14 13 11 10 10 11 12 14 16 18 19
34 36 38 38 38 38 37 36 35 34 33 33 32 30 27 25 21 19 17 13 10 7 5 7 9 12 15 16 18 18 17 15 14 12 11 11 12 13 15 17 19 20 21
34 35 36 37 37 36 35 34 32 31 31 30 29 27 23 21 18 16 14 12 10 7 8 9 12 15 16 18 18 17 16 14 13 12 12 13 14 16 18 20 21 21 22
33 34 35 35 35 34 33 32 30 29 29 27 26 24 20 18 15 14 13 11 10 9 9 11 14 16 17 18 18 17 15 13 13 13 13 14 15 18 20 21 22 22 22
33 33 34 34 33 32 30 29 28 27 26 26 24 21 18 15 13 12 12 11 10 10 10 12 15 17 18 18 18 16 14 13 13 13 14 15 17 19 20 21 21 21 21
32 33 33 33 31 30 28 26 25 25 24 24 22 19 16 13 11 11 11 10 10 10 11 13 15 17 18 18 17 16 15 14 14 14 15 16 18 19 20 21 21 20 19
32 33 32 31 29 27 25 24 23 23 23 22 20 17 15 12 11 10 11 10 10 11 12 13 15 16 17 17 17 16 15 13 13 14 15 17 18 19 19 20 19 18 17
32 31 30 29 27 25 24 23 22 22 22 21 19 16 14 11 10 10 10 10 11 11 12 13 14 15 16 17 16 15 15 14 13 14 15 17 18 18 18 17 16 15 14
31 30 29 28 26 24 23 23 23 22 22 21 20 17 15 12 10 10 11 11 11 11 12 13 14 15 15 15 15 15 15 14 13 14 15 16 17 17 16 16 14 13 12
31 31 29 28 26 24 24 24 23 23 22 22 20 19 16 14 12 11 11 11 11 11 11 12 13 13 14 14 14 14 14 14 14 14 14 14 15 15 14 14 13 12 11
33 32 30 29 27 25 24 24 24 24 23 22 21 19 18 16 15 13 12 12 12 11 11 12 12 13 13 13 13 14 14 14 14 13 13 13 13 13 13 12 12 11 10
34 33 32 30 28 27 25 25 25 25 24 24 22 20 18 17 16 15 14 13 13 12 12 12 12 12 12 12 13 13 13 13 14 14 13 13 12 11 11 10 10 9 8
36 35 34 32 31 29 27 26 26 26 26 25 23 22 19 17 17 16 15 14 14 13 13 12 12 12 12 12 12 12 12 13 13 13 13 13 12 11 10 9 8 7 7

GEFSGL_500_meanwind_036.txt.gz
Wind_Speed
41 43 46 48 51 52 51 49 49 49 50 51 52 54 55 56 56 56 56 55 55 55 56 57 58 60 61 62 63 63 63 63 61 56 53 50 49 49 48 48 46 45 44
42 44 47 49 50 50 50 49 48 49 50 51 52 54 55 55 55 55 54 54 55 56 57 58 59 61 61 61 60 58 56 54 51 47 46 44 43 43 42 41 40 38 38
45 46 48 50 51 51 51 49 48 48 49 51 52 53 53 53 53 53 54 55 56 57 58 59 60 59 58 56 53 49 47 45 43 41 39 38 37 37 36 35 34 33 31
47 48 49 51 51 50 49 48 47 48 50 51 52 52 52 52 52 53 54 56 57 58 59 58 57 55 52 48 44 42 40 38 38 36 33 32 31 30 29 27 26 25 24
48 49 51 50 49 49 48 48 48 48 49 50 50 50 51 51 52 54 55 57 57 57 55 54 51 48 44 41 38 37 35 34 32 29 26 25 24 23 21 19 18 18 18
49 49 50 51 50 49 47 47 47 48 49 49 49 49 50 52 53 55 55 56 55 53 51 48 45 42 39 36 34 32 31 28 25 22 20 18 17 15 14 13 12 12 13
49 49 50 50 48 46 46 46 47 47 47 48 48 50 51 53 54 54 53 52 51 48 45 42 39 37 34 31 29 27 24 20 17 15 13 12 10 9 8 7 7 7 8
49 49 48 46 45 45 45 45 46 46 46 48 49 51 52 52 52 51 49 47 45 43 39 36 33 30 27 25 22 19 15 12 9 8 7 5 3 3 3 3 4 4 5
47 46 45 44 42 43 44 44 45 46 47 49 50 50 50 49 48 46 44 42 39 37 34 30 26 24 21 17 14 11 7 5 3 2 0 1 2 3 3 3 3 2 3
44 43 42 41 41 42 43 44 45 47 48 49 49 48 46 44 42 40 38 36 34 31 28 24 20 16 13 10 7 4 1 1 2 4 5 5 5 4 4 3 2 2 1
40 39 39 39 40 41 43 44 46 47 47 47 46 44 41 38 36 34 32 30 28 25 21 16 12 9 6 4 2 3 4 6 7 7 6 6 6 5 4 4 4 3 2
36 36 37 38 39 41 43 45 45 45 45 43 41 39 35 33 31 29 27 25 22 17 13 9 6 3 3 5 6 7 8 8 8 8 7 7 7 6 6 6 6 6 6
32 34 36 37 40 42 43 43 43 42 41 39 36 33 30 27 26 25 23 19 15 11 7 4 4 5 7 10 11 10 10 10 10 9 8 8 8 8 8 9 9 10 10
31 34 36 38 40 41 42 41 40 38 35 32 30 27 25 23 22 20 17 14 10 6 4 5 7 9 12 12 12 11 11 10 10 9 9 9 9 10 11 12 12 12 13
32 34 37 39 39 39 38 37 35 32 29 27 24 22 20 19 17 15 12 9 6 4 6 8 11 12 13 13 12 11 11 10 9 9 10 11 12 14 14 15 15 16 16
33 35 37 37 37 36 34 31 28 25 23 22 20 18 16 15 13 10 8 6 4 6 9 11 12 13 14 13 12 12 11 10 10 10 12 14 15 16 16 17 17 18 18
33 35 35 34 33 31 28 26 23 21 20 18 16 14 12 11 9 7 6 5 6 9 11 13 14 15 14 13 13 12 11 11 11 13 15 17 18 18 17 18 18 18 18
32 33 32 30 28 26 24 22 20 19 18 16 13 11 9 8 7 5 5 6 8 11 12 14 15 15 15 14 13 12 12 12 14 16 18 19 19 19 19 18 18 18 18
30 29 28 26 23 21 20 19 17 16 15 14 11 9 7 6 5 6 7 8 10 12 13 15 15 15 15 14 13 13 13 14 15 18 19 20 20 20 19 19 19 18 18
27 26 24 22 20 19 18 17 16 15 13 12 10 8 6 6 7 8 9 10 11 13 14 15 15 15 14 13 13 13 14 15 17 18 20 20 20 20 19 19 18 18 17
25 23 22 20 18 17 17 16 15 13 12 11 9 7 7 8 9 10 11 12 13 13 15 15 15 14 14 13 13 14 14 16 18 19 20 20 19 19 18 17 17 16 16
24 23 21 19 17 17 16 15 14 13 11 11 10 8 9 10 11 12 13 13 14 14 15 15 14 14 13 12 13 14 15 16 18 19 20 19 18 17 16 16 15 14 14
24 23 21 19 18 17 16 16 14 12 11 11 11 11 11 12 13 13 14 14 14 14 15 14 14 13 12 12 13 14 15 16 17 18 19 18 17 16 15 14 13 12 12
25 24 22 21 19 18 17 16 15 13 12 12 12 12 13 14 15 15 16 15 15 15 14 14 13 12 12 12 12 13 14 16 17 17 17 17 16 15 14 13 13 12 12
28 26 24 23 22 20 18 17 16 14 13 13 13 14 14 15 16 17 17 16 16 15 14 13 12 11 11 11 12 12 13 14 16 16 16 16 15 14 13 13 12 12 12
31 29 28 26 25 23 21 19 18 16 15 14 15 15 16 17 18 18 18 17 17 15 14 13 12 12 11 11 11 12 12 12 13 13 14 14 13 13 12 11 11 11 11

GEFSGL_500_meanwind_042.txt.gz
Wind_Speed
41 42 43 45 46 47 48 49 50 52 54 55 57 58 56 55 55 55 56 56 57 58 60 62 64 66 67 68 69 69 69 69 69 65 63 60 56 53 51 50 49 48 47
43 44 46 47 48 50 51 52 53 55 56 57 58 57 56 57 55 54 54 56 58 60 61 63 64 66 67 68 68 67 66 65 63 58 53 49 47 45 43 42 41 40 40
46 47 49 50 51 53 53 54 56 57 57 59 59 60 59 57 54 54 55 57 59 60 62 64 65 66 66 65 65 63 60 57 53 48 43 41 39 38 38 36 35 35 35
49 50 51 52 53 55 56 56 57 59 61 62 62 61 58 55 53 54 56 57 59 60 62 63 64 63 63 61 57 54 50 47 43 40 36 34 34 34 32 30 29 29 29
51 52 52 53 55 55 57 58 60 62 64 62 60 56 55 53 52 54 56 57 59 60 61 61 60 59 56 52 48 44 41 37 34 32 29 29 29 27 26 24 23 22 23
51 52 52 53 55 57 58 59 61 61 61 60 55 52 51 51 52 54 56 57 58 58 58 56 54 51 47 43 40 36 34 31 28 26 25 23 21 20 18 17 16 16 16
50 51 52 53 55 57 58 59 60 60 58 53 50 49 49 50 52 54 55 55 55 54 52 49 45 42 39 36 32 29 27 24 21 20 18 15 14 13 12 12 12 11 11
49 50 51 53 55 57 58 58 57 55 52 50 48 48 49 50 51 52 52 51 49 47 44 40 36 34 32 28 24 21 18 16 15 13 11 10 9 9 9 8 9 9 9
47 49 50 53 55 55 55 54 52 50 48 46 47 47 48 49 48 48 47 45 41 38 35 32 29 27 23 20 17 14 12 11 9 8 7 7 7 7 8 8 8 8 8
46 49 51 53 53 52 51 49 48 46 45 46 46 46 46 45 44 42 40 36 33 30 28 26 23 20 17 14 11 9 7 6 5 5 6 6 7 7 8 9 9 8 8
47 48 49 49 48 47 46 44 43 43 43 44 43 42 41 39 37 34 30 27 25 24 22 19 16 13 11 8 6 5 5 5 6 6 6 7 7 8 9 9 9 9 9
43 43 44 43 42 42 42 42 42 41 40 39 38 36 34 32 29 26 23 22 20 18 15 12 10 8 6 5 5 6 6 6 7 7 7 8 8 8 9 10 11 11 11
37 37 37 37 38 39 39 39 38 37 35 34 32 30 27 25 22 21 19 17 15 12 9 7 6 5 5 6 7 7 7 7 7 8 8 8 9 9 10 11 13 14 13
32 33 34 35 36 36 36 35 34 32 30 28 26 24 22 20 18 17 16 13 10 7 5 4 4 5 7 7 7 8 8 8 8 8 9 10 10 11 12 13 14 15 14
31 32 33 34 34 33 32 31 28 26 24 23 21 20 18 17 15 14 11 8 6 4 3 4 6 7 7 7 8 8 8 8 8 9 10 11 11 12 13 14 15 15 15
31 32 32 32 31 29 27 25 23 22 20 19 18 17 15 14 12 10 6 4 3 3 5 6 7 8 8 8 8 8 8 8 9 10 11 11 12 13 13 14 15 16 16
30 30 30 29 27 25 23 21 20 18 17 16 15 14 12 10 9 6 3 2 4 6 7 8 9 9 9 9 9 8 9 9 10 11 11 11 12 13 13 14 15 16 17
28 27 27 25 24 22 20 19 17 16 14 13 13 11 9 8 5 3 3 4 6 8 9 9 10 10 10 9 9 10 10 11 12 12 11 12 12 12 13 14 15 15 16
27 26 25 23 21 19 17 16 14 13 12 11 10 9 7 5 4 4 5 7 9 10 10 10 11 10 10 10 11 11 12 12 13 12 12 12 11 11 12 13 14 15 15
25 24 23 20 18 17 15 14 12 11 10 9 8 7 6 5 5 6 7 9 10 11 11 11 11 11 11 11 11 12 12 13 13 13 13 13 13 13 14 14 15 16 16
25 23 21 18 16 15 13 12 10 9 9 8 7 7 7 7 8 8 10 11 12 12 12 12 12 12 12 12 12 12 12 13 13 13 13 13 14 14 14 15 15 16 16
23 22 20 17 15 13 12 10 9 8 8 8 8 8 9 10 10 11 11 13 13 12 12 12 12 12 12 12 12 12 13 13 13 13 13 13 13 14 14 14 15 15 16
23 22 19 17 14 12 10 9 8 8 8 9 10 10 11 12 12 13 13 14 13 13 12 12 12 12 12 12 13 13 13 14 13 13 13 13 13 13 13 14 14 14 15
24 22 20 17 14 12 10 9 9 9 9 10 11 12 13 13 14 14 14 14 13 12 12 11 11 12 12 12 12 12 13 13 13 12 12 13 13 13 13 14 14 14 14
26 24 21 18 15 13 12 11 11 11 11 12 13 14 14 15 15 15 15 14 13 12 11 11 11 11 12 12 13 13 13 12 12 12 12 12 13 14 14 14 14 14 14
28 26 23 20 17 15 13 13 13 13 14 14 15 16 16 16 16 16 15 14 13 12 11 10 11 11 11 12 12 13 13 12 12 12 12 12 12 13 13 13 13 13 13

GEFSGL_500_meanwind_048.txt.gz
Wind_Speed
39 42 45 48 50 52 53 54 55 56 57 58 58 58 58 59 59 59 59 60 60 61 61 60 59 60 60 60 62 64 66 68 69 69 71 71 69 66 62 58 54 51 49
43 46 48 50 52 54 55 56 57 58 59 60 60 59 59 59 59 59 59 59 59 60 60 59 59 59 59 60 62 64 66 69 69 67 64 61 57 52 48 45 43 41 39
48 50 52 53 54 55 57 58 59 59 60 60 59 58 58 59 59 59 58 59 60 60 59 58 58 57 58 60 62 64 65 65 62 59 52 48 44 41 38 36 34 34 33
53 54 54 54 54 55 57 57 57 58 58 57 57 57 57 57 58 58 58 59 59 58 57 57 57 58 59 60 60 60 59 56 52 47 41 37 34 32 30 28 28 28 27
55 54 54 54 54 54 55 55 55 56 56 56 56 55 56 57 57 58 58 58 57 56 55 55 56 57 57 57 56 53 50 45 41 36 32 28 26 25 25 24 22 22 22
55 55 54 53 52 52 53 53 54 53 53 54 54 55 56 57 57 57 57 55 53 53 53 53 54 54 53 51 48 44 39 34 28 26 23 21 20 20 19 19 18 18 18
54 53 51 50 49 50 50 51 51 51 52 53 54 55 56 55 54 53 51 50 50 50 50 50 49 48 45 41 37 33 28 24 21 19 17 16 16 16 16 17 17 17 17
50 48 47 46 46 47 47 48 49 51 52 53 53 53 52 50 49 48 48 48 47 47 46 44 41 38 35 30 27 23 20 18 16 14 14 13 14 14 15 15 16 16 16
44 43 42 43 44 45 47 48 49 50 50 50 49 48 46 45 45 44 44 43 42 41 39 36 33 29 26 22 18 16 14 13 12 12 11 12 12 13 15 15 16 15 14
39 39 40 41 42 44 45 46 47 47 46 45 44 43 43 42 41 40 38 38 37 35 33 29 25 22 18 14 11 10 10 9 9 10 11 12 13 14 15 15 15 14 13
37 37 39 40 42 43 43 43 42 42 42 42 41 40 39 38 36 34 33 32 30 28 25 22 18 14 10 8 7 7 7 7 7 9 11 12 14 15 16 15 15 14 13
35 36 37 38 39 39 40 40 40 40 39 39 37 36 34 32 31 29 27 25 23 20 17 14 10 7 5 5 5 5 5 6 8 9 11 12 14 16 17 16 15 15 15
33 34 35 36 38 38 38 38 37 36 35 33 32 30 29 27 25 24 22 19 16 13 10 7 5 3 3 4 4 5 6 7 8 10 11 13 15 17 18 18 17 17 16
33 34 35 36 37 37 36 35 33 31 29 27 26 24 23 22 20 18 16 12 9 7 4 2 1 2 3 4 5 6 7 8 9 11 12 14 15 17 18 18 18 18 18
32 33 34 34 34 33 31 30 28 26 23 22 20 19 18 17 15 13 10 7 4 1 1 2 3 4 4 5 6 6 7 8 9 11 12 14 16 17 17 17 18 18 19
32 32 32 31 30 29 27 24 22 20 19 17 16 15 14 12 10 7 4 1 1 2 4 5 5 5 6 6 6 7 8 9 10 11 12 14 15 16 17 17 18 18 19
31 31 30 28 26 24 21 19 17 16 15 14 13 11 10 7 4 1 1 3 5 6 7 7 7 7 7 8 8 9 9 10 11 12 13 14 15 16 17 17 18 18 19
30 29 27 25 22 19 16 15 13 11 10 10 9 7 5 2 1 4 5 7 8 9 9 8 8 8 9 10 10 10 10 11 12 13 14 15 16 16 17 17 17 18 18
27 25 23 20 17 14 12 10 9 8 7 6 6 4 3 4 6 7 9 10 11 11 10 9 9 10 11 11 12 12 12 12 13 14 15 16 16 16 17 17 17 18 18
24 22 19 15 12 10 9 8 7 7 6 5 5 5 6 7 9 11 12 12 12 12 11 11 11 11 12 13 13 13 13 13 14 15 15 16 17 17 17 18 18 18 18
21 18 15 12 10 8 8 8 7 8 8 8 8 9 9 11 12 13 13 14 13 12 12 12 12 13 13 14 13 13 13 14 14 15 16 17 18 18 19 19 19 19 19
19 16 13 11 10 9 9 9 9 10 10 11 11 11 12 14 14 14 14 14 13 13 13 13 14 14 14 14 14 14 14 15 15 16 17 17 18 19 20 21 21 21 20
19 15 13 12 11 11 11 10 10 11 12 13 13 13 14 15 15 15 14 13 13 13 14 14 14 15 15 15 15 14 14 15 15 16 17 18 18 19 20 21 21 22 22
19 16 15 14 13 13 12 12 12 13 14 14 15 15 15 15 15 14 14 13 13 14 14 14 14 15 14 14 14 14 14 14 15 16 17 18 18 19 19 20 21 21 22
20 18 18 17 16 15 15 15 15 16 16 16 16 16 16 15 15 14 13 13 13 14 14 14 14 14 14 14 13 13 13 14 14 15 16 17 17 18 18 19 19 19 20
23 21 21 20 19 19 19 19 18 18 18 17 17 16 16 15 14 14 13 13 13 13 14 14 14 14 14 13 13 13 13 13 13 14 15 15 15 16 16 16 17 17 17

GEFSGL_500_meanwind_054.txt.gz
Wind_Speed
45 46 48 49 50 50 51 52 53 54 55 57 58 58 59 59 60 60 60 61 61 61 61 61 61 60 60 60 61 61 61 61 61 60 63 64 66 66 65 63 60 57 54
47 49 51 52 52 54 55 56 58 58 58 58 59 59 59 59 60 60 60 60 60 60 59 59 59 59 59 60 60 60 60 61 61 60 61 62 62 60 57 53 50 46 44
50 52 54 55 56 58 59 59 60 59 59 59 58 58 59 59 59 58 58 58 58 57 57 58 58 58 58 59 59 59 59 60 60 59 57 55 52 49 46 42 39 37 35
55 56 57 58 58 60 60 60 59 59 59 58 57 57 58 57 57 56 55 55 55 55 56 56 57 56 56 57 56 56 56 55 54 52 48 44 40 37 35 32 31 31 31
56 57 58 59 59 59 59 59 58 58 57 56 56 56 56 55 55 54 53 54 54 55 55 55 55 54 54 53 52 52 50 48 46 41 37 33 31 29 28 28 27 28 29
57 57 58 57 57 57 57 57 56 55 54 53 53 53 53 52 53 53 53 52 52 52 52 52 51 50 49 49 48 46 44 40 35 31 28 26 25 25 25 26 26 26 27
55 55 55 55 55 54 54 53 52 51 50 50 50 50 50 50 50 51 51 51 50 49 48 47 47 45 44 43 42 39 36 31 27 24 21 21 21 22 23 24 25 25 25
53 52 52 51 51 51 50 49 48 48 48 49 49 49 50 50 49 48 48 47 46 46 45 43 42 40 38 36 33 30 27 23 20 18 17 18 19 21 23 23 23 23 22
49 49 48 47 47 47 46 46 46 46 47 47 48 48 48 47 46 46 45 45 44 42 40 38 35 33 31 27 25 22 19 16 15 14 15 17 19 20 20 21 20 20 20
45 44 44 44 43 43 44 44 44 45 46 46 46 46 46 45 44 43 41 40 38 36 34 31 28 25 22 20 16 14 12 11 12 13 15 16 18 18 19 19 19 19 19
40 40 40 41 41 41 42 43 44 45 45 45 44 43 42 40 39 37 35 33 31 28 26 23 20 17 15 12 10 8 8 9 11 12 14 15 16 17 18 18 18 19 19
36 37 37 38 39 40 41 42 43 43 42 41 40 38 36 34 32 30 28 25 23 21 19 16 13 11 9 7 6 6 7 9 10 11 13 15 16 16 17 18 18 18 18
34 35 37 38 39 40 40 41 40 39 38 36 34 32 29 26 24 22 20 18 16 14 12 10 8 6 4 3 4 5 7 8 10 11 13 15 16 16 16 17 19 19 19
34 35 37 38 39 39 39 38 36 34 32 29 26 24 21 20 18 16 14 12 10 8 6 4 3 2 2 3 4 5 7 8 10 11 13 15 16 16 17 17 19 20 20
35 36 37 37 37 35 34 32 29 27 24 22 19 17 16 14 13 11 8 6 4 3 1 1 2 3 4 4 5 6 8 9 10 11 13 15 16 17 17 18 19 20 21
35 35 34 33 31 29 27 25 22 20 18 16 14 12 11 9 8 5 3 2 2 3 4 5 5 5 6 6 7 8 9 10 11 12 13 15 16 17 18 19 20 21 22
33 32 30 28 25 22 20 19 16 14 13 11 9 8 7 5 3 3 4 5 6 6 7 7 7 7 8 8 9 9 10 11 12 13 14 15 16 17 18 19 20 21 22
29 26 24 21 19 17 15 13 12 10 9 8 7 6 5 5 6 7 7 8 9 9 9 9 9 9 10 10 10 11 12 13 14 15 16 16 17 17 19 19 20 21 22
24 21 19 16 14 13 11 10 9 9 8 8 7 7 8 9 10 10 10 10 10 10 11 11 11 11 12 12 12 12 13 14 16 17 17 18 18 18 19 20 21 22 23
20 17 15 13 11 10 10 10 10 10 9 9 10 10 11 12 12 12 12 12 12 12 12 12 12 13 13 13 14 14 15 16 17 18 19 19 20 20 20 21 21 22 22
17 15 13 11 10 10 10 10 10 10 11 11 12 13 13 13 13 13 13 13 13 13 13 13 14 14 14 14 15 16 17 18 18 19 20 21 21 22 23 23 23 23 23
16 14 13 11 11 11 11 11 12 12 12 13 14 14 14 14 14 14 14 14 14 14 14 14 15 15 15 15 16 17 17 18 18 19 20 21 21 22 23 23 23 23 23
16 15 14 13 12 12 13 13 13 14 14 15 15 15 15 15 15 15 15 15 15 15 15 15 15 15 15 15 16 16 17 17 18 18 19 19 20 21 21 22 23 23 23
18 17 16 15 15 15 15 16 15 15 15 15 15 15 15 15 15 15 15 15 15 15 15 15 15 15 14 15 15 15 16 16 16 17 17 17 18 18 19 19 20 20 21
20 19 19 18 17 17 18 18 17 17 16 16 15 15 14 14 14 15 15 15 14 14 14 14 14 14 14 13 14 14 14 14 15 15 15 16 16 16 17 17 17 18 18
21 21 20 20 19 19 19 19 19 18 17 16 15 15 14 14 14 14 14 14 14 14 14 14 13 13 13 13 12 13 13 13 13 14 14 14 15 15 16 16 16 16 16

GEFSGL_500_meanwind_060.txt.gz
Wind_Speed
40 42 43 44 44 45 47 48 48 49 50 51 52 52 53 53 54 54 54 54 55 55 55 55 55 55 55 56 56 57 58 58 57 57 58 59 59 60 59 58 57 55 54
42 44 45 46 47 49 50 51 52 53 53 54 54 54 55 55 55 55 55 54 54 54 54 54 54 54 54 54 55 55 56 56 56 55 55 55 55 55 54 52 50 49 47
44 45 47 48 50 51 53 54 55 55 55 55 55 55 55 55 55 54 54 53 53 52 52 52 52 52 53 53 53 53 53 53 53 52 51 50 50 49 47 45 43 41 39
46 47 49 50 52 53 54 55 56 56 56 56 56 55 55 54 53 53 52 52 51 51 51 51 51 51 51 51 51 50 50 50 49 48 47 46 44 42 40 38 35 34 33
48 49 51 52 53 54 54 55 55 55 55 55 55 54 54 53 52 51 50 50 49 49 49 50 50 50 49 49 48 47 47 47 45 44 41 39 37 35 33 31 30 29 30
49 50 51 51 52 53 53 54 54 54 54 54 53 53 52 51 50 49 48 48 48 48 49 49 48 47 46 46 45 44 43 41 39 36 34 32 30 28 27 27 27 27 27
49 49 49 50 51 52 52 52 53 52 52 51 51 50 49 49 49 49 49 49 48 48 48 47 46 45 44 43 41 39 37 34 31 29 27 25 24 25 25 25 26 26 26
47 48 48 49 49 50 50 50 49 49 49 48 48 48 49 49 49 49 48 48 47 47 46 44 43 41 40 37 34 32 30 27 24 22 21 21 22 22 23 23 24 24 24
46 46 46 46 47 47 47 46 46 46 47 47 47 47 48 48 48 48 48 47 45 43 41 39 37 35 32 30 28 26 24 21 18 17 17 19 20 20 20 21 22 23 23
43 44 44 44 44 44 44 44 44 45 45 46 46 47 47 47 46 45 44 42 39 37 35 32 29 27 25 24 22 19 17 15 14 14 15 16 17 18 19 19 21 22 22
41 41 41 42 42 42 42 43 43 44 44 45 45 45 45 44 42 39 37 34 32 29 27 24 22 20 18 16 14 12 11 11 11 12 13 14 15 17 17 18 20 21 21
38 38 39 39 40 41 41 42 42 43 43 42 42 41 39 36 33 30 27 25 23 21 19 17 15 13 12 10 9 8 8 8 9 10 11 12 14 16 16 18 19 20 20
35 36 37 39 39 40 40 40 40 39 38 37 35 32 29 26 23 21 19 17 16 14 12 10 9 7 6 5 5 4 5 6 8 9 10 12 13 15 15 17 18 19 19
35 36 37 38 38 38 37 36 34 33 30 28 26 23 20 18 16 15 14 12 10 8 7 5 4 3 2 2 2 4 5 6 7 8 9 11 12 14 15 16 18 18 18
35 35 36 35 34 31 30 28 27 25 23 20 18 16 14 13 11 10 8 6 5 3 1 0 1 2 3 3 4 5 6 6 7 8 9 11 12 13 15 16 17 18 18
32 31 30 28 26 24 23 21 20 18 16 14 12 11 9 8 6 5 3 1 1 2 3 4 4 5 5 6 6 6 7 8 8 9 10 11 13 14 15 16 17 17 18
27 26 24 21 19 18 16 15 13 12 10 9 8 6 5 3 2 2 3 4 5 6 6 6 7 8 8 8 8 9 9 10 10 11 11 12 14 15 16 16 17 17 18
21 18 16 15 13 12 11 10 9 8 7 6 5 5 5 5 5 6 6 7 8 8 8 9 9 10 10 10 10 11 11 12 12 13 13 14 15 16 17 18 18 18 18
15 14 13 11 10 9 9 8 8 8 7 7 8 8 8 8 8 8 9 9 9 9 10 11 11 11 11 12 13 13 13 14 14 15 15 16 17 18 19 19 20 20 19
13 12 10 10 9 8 8 8 8 8 9 9 9 10 10 10 10 11 11 11 11 11 12 12 12 13 13 14 14 14 15 15 16 16 16 17 18 19 20 20 21 21 20
12 11 10 10 10 9 9 9 10 10 11 11 11 12 12 12 12 12 12 12 13 13 13 13 14 14 14 15 15 15 15 15 16 16 17 17 18 19 20 21 21 21 21
12 12 12 12 12 11 11 12 12 12 12 12 13 14 14 14 14 14 14 14 14 14 14 14 14 14 14 14 14 14 14 15 15 16 16 17 17 18 19 20 20 20 20
13 13 13 13 13 13 13 13 13 13 13 13 14 14 15 15 15 15 15 15 14 14 14 14 14 14 14 14 13 14 14 14 14 15 15 15 16 17 17 18 19 19 19
14 14 14 14 14 14 13 13 13 13 14 14 14 14 15 15 15 15 15 14 14 14 13 13 13 13 13 13 13 13 13 13 14 14 15 16 16 17 17 17 18 18 18
14 14 14 14 14 14 14 14 14 14 14 14 15 15 15 15 14 14 14 14 14 13 13 13 12 12 12 12 13 13 13 14 14 15 15 16 17 17 18 18 18 18 18
15 15 15 14 14 14 14 14 14 14 14 14 14 14 14 14 14 14 14 14 13 13 13 12 12 12 12 12 13 13 14 14 15 15 16 17 17 18 18 18 19 18 18

GEFSGL_500_meanwind_066.txt.gz
Wind_Speed
37 39 41 43 44 46 48 49 51 52 52 53 53 53 53 54 55 55 55 56 56 56 57 57 57 57 58 58 58 58 59 59 58 58 59 59 59 60 59 59 59 58 57
40 41 43 45 46 48 50 52 53 54 54 56 56 57 57 58 58 58 58 58 58 58 58 57 57 57 56 56 56 56 57 57 57 56 56 57 57 57 56 56 55 54 52
42 44 45 47 48 50 52 53 54 55 56 57 58 59 59 60 60 60 60 59 58 58 57 57 56 55 55 55 54 54 54 54 54 54 53 53 53 53 52 51 49 47 45
44 45 47 48 49 51 52 53 54 55 56 58 59 60 60 60 60 59 59 58 57 56 55 55 54 53 53 53 52 53 52 52 52 51 51 51 50 49 47 45 42 41 41
44 45 46 47 49 50 52 53 55 57 58 59 59 59 59 59 58 58 57 56 55 54 54 53 53 53 52 52 52 51 51 50 49 49 47 46 44 42 40 39 38 37 36
45 46 48 50 51 53 54 55 56 56 57 57 57 57 57 56 56 56 55 54 54 53 53 53 52 52 51 51 50 49 48 46 45 44 41 39 37 36 35 34 33 32 31
45 46 48 49 50 50 52 53 53 54 54 55 55 54 54 54 54 54 53 53 53 53 52 52 51 50 48 47 46 44 42 41 39 37 34 33 31 30 29 28 28 28 28
43 45 46 47 48 50 51 51 52 52 53 53 53 53 52 52 52 52 52 51 51 50 49 48 46 45 43 42 40 38 36 34 31 28 27 26 25 24 24 24 24 25 26
44 45 45 46 47 47 48 49 49 50 50 50 50 50 50 50 50 50 49 47 46 45 44 42 40 38 36 33 31 30 28 26 24 22 21 20 19 19 20 21 22 23 24
42 43 43 44 44 45 46 46 47 47 48 48 47 47 47 46 46 45 43 41 40 38 36 34 32 29 27 25 24 22 20 19 18 15 15 15 15 16 17 18 20 21 22
40 40 41 42 43 43 44 45 45 45 45 44 44 44 42 41 39 38 37 35 32 29 27 25 23 21 20 18 16 15 13 12 11 11 11 12 13 14 15 17 19 21 21
38 39 40 41 42 42 42 41 41 40 40 39 38 37 36 34 33 31 29 26 23 21 19 17 15 13 11 11 10 8 8 8 8 8 9 10 11 13 15 16 18 19 20
37 38 38 39 39 38 37 36 35 34 34 33 33 32 30 28 26 23 20 18 15 13 11 9 8 7 6 6 5 5 5 5 6 6 8 9 11 13 15 16 17 18 19
34 35 35 34 34 32 31 31 30 29 29 28 27 25 23 21 18 15 13 11 9 7 5 4 4 4 4 4 4 5 5 6 7 7 9 10 12 14 14 15 16 18 18
31 31 30 29 28 27 26 26 26 25 24 23 21 19 16 14 11 9 7 6 4 4 4 4 4 5 5 6 6 7 8 8 9 9 10 12 13 14 15 15 16 17 17
28 27 26 24 23 22 22 21 21 20 19 18 15 13 10 8 6 5 4 5 5 5 5 6 7 7 8 8 9 9 10 10 10 11 12 13 14 15 16 16 17 17 17
24 23 22 20 19 19 18 18 18 17 16 14 12 10 8 7 7 7 7 7 7 7 8 8 9 10 10 11 11 11 12 12 12 13 13 14 15 16 17 17 17 17 17
21 20 18 17 17 16 15 15 15 14 12 11 11 10 9 9 9 10 9 9 9 9 10 11 12 12 12 13 12 12 12 12 13 14 14 15 16 17 17 17 17 17 17
18 17 16 15 14 14 13 13 13 12 12 11 11 11 11 11 11 11 11 11 11 12 12 13 13 13 14 13 13 12 12 12 13 14 15 16 17 18 18 18 18 18 18
16 15 14 13 13 12 12 12 12 12 12 11 11 12 12 12 12 12 13 13 14 14 14 14 14 14 14 13 13 12 12 13 13 14 15 16 17 18 18 18 18 18 18
13 12 12 12 12 12 12 13 13 12 12 12 12 12 13 13 13 14 14 14 15 15 15 14 14 14 14 13 13 13 13 13 13 14 15 16 17 18 18 18 18 18 18
11 11 12 12 12 12 12 13 12 12 12 12 13 13 14 14 14 14 15 15 15 15 14 14 14 14 13 13 13 13 13 13 14 15 16 17 18 18 18 18 18 18 19
10 11 11 11 12 12 12 12 12 13 13 13 13 14 14 14 15 15 15 14 14 14 13 13 13 13 13 13 13 13 14 14 15 15 16 17 18 18 18 18 18 19 19
11 11 11 11 11 12 12 12 12 13 13 13 13 13 14 14 15 15 14 14 13 13 12 12 12 12 12 13 13 13 14 15 15 16 17 17 18 19 19 18 18 19 19
11 11 11 11 11 11 11 12 12 12 13 13 13 13 13 13 14 14 13 13 12 12 12 12 12 12 12 13 13 14 14 15 16 17 17 18 18 19 20 20 19 19 20
12 11 11 11 11 11 11 11 11 12 12 12 12 12 13 12 12 12 12 12 12 12 12 12 12 13 13 13 14 14 15 15 16 17 17 18 18 19 20 20 20 20 20

GEFSGL_500_meanwind_072.txt.gz
Wind_Speed
42 42 41 42 42 43 44 45 47 48 49 49 51 52 53 53 54 56 56 57 57 58 59 60 60 61 61 61 61 61 61 61 61 61 62 62 62 62 61 61 61 60 60
41 41 42 43 43 44 45 47 48 49 51 52 54 55 56 57 57 58 59 59 60 61 61 61 61 61 61 61 60 60 60 60 60 59 59 60 60 59 59 58 58 58 57
41 41 42 43 45 46 48 50 51 53 55 56 57 57 58 58 59 59 60 61 61 62 62 62 62 61 61 60 60 59 59 58 58 57 57 57 57 57 56 56 55 55 54
41 42 43 45 46 48 50 52 53 54 56 57 57 57 58 59 60 60 60 61 61 61 61 61 61 61 60 59 58 58 57 56 56 55 55 55 55 54 53 52 51 50 49
40 41 43 45 47 49 51 52 53 54 55 56 56 57 58 58 59 59 60 60 60 60 60 60 59 58 58 57 56 55 54 54 54 53 52 51 50 49 48 47 45 43 41
39 41 43 44 46 47 48 49 50 50 52 53 54 55 56 57 58 58 58 58 57 57 57 56 55 54 54 53 53 52 51 50 49 48 47 45 44 43 41 39 37 34 32
38 39 40 41 43 45 46 47 48 49 50 51 53 54 55 55 55 55 55 55 54 54 53 52 50 49 48 48 47 47 46 45 43 41 39 37 35 34 32 30 29 26 25
36 38 39 40 42 43 44 46 47 48 49 50 51 52 52 52 51 52 51 51 49 48 47 46 45 44 44 42 41 40 39 36 33 30 29 28 26 25 24 22 21 21 22
36 37 39 40 41 42 43 45 46 47 48 48 48 48 48 48 48 47 47 45 44 42 41 40 38 37 36 34 32 30 28 26 24 22 20 19 19 17 16 16 17 18 19
35 36 37 38 40 41 42 43 44 44 44 44 45 45 45 44 44 42 40 38 37 36 34 32 30 28 26 24 22 20 19 17 16 14 14 13 12 12 13 14 15 16 17
32 34 35 36 37 38 39 39 39 40 40 40 40 39 39 38 37 35 34 32 31 29 26 24 22 19 18 16 14 13 12 11 10 9 9 10 10 11 12 13 14 15 15
29 30 31 32 33 34 34 34 34 34 33 34 33 32 32 30 29 27 26 25 23 21 18 16 14 12 10 10 9 8 7 7 7 7 8 9 10 11 12 12 13 14 14
27 28 29 30 30 30 30 29 28 28 29 28 27 26 24 23 21 20 19 17 15 12 10 9 7 6 6 6 6 6 6 6 6 7 8 9 10 11 12 12 13 14 14
25 25 26 26 26 26 26 25 25 25 24 23 23 21 19 17 16 14 12 9 8 6 5 4 4 5 5 5 6 6 6 6 7 8 9 10 12 13 13 14 14 14 15
21 21 22 23 23 23 23 22 22 21 20 19 18 17 14 12 11 9 7 6 5 5 5 5 6 7 7 7 8 8 8 8 9 10 11 12 13 14 15 15 16 16 16
19 20 20 20 20 20 20 19 18 17 16 15 14 13 11 10 9 8 7 7 7 8 8 9 9 9 9 9 9 9 10 10 11 12 13 14 15 16 16 17 17 17 16
18 18 17 17 17 17 16 16 15 14 13 12 11 10 10 9 9 9 9 9 9 10 10 10 10 10 10 9 10 10 11 11 12 13 15 15 16 17 17 18 18 17 16
16 15 15 15 14 14 13 13 13 12 11 10 10 9 9 9 10 10 10 10 11 11 11 11 10 10 10 10 10 11 11 13 14 15 16 17 17 18 18 18 18 17 16
13 13 12 12 12 12 12 12 11 11 10 10 9 9 10 10 11 11 11 11 12 12 11 11 11 11 11 10 11 11 12 13 15 16 17 17 18 18 18 18 18 17 16
11 11 11 11 11 11 11 10 10 10 9 9 10 10 11 11 11 12 12 12 12 12 11 11 11 11 11 11 11 12 13 14 15 16 17 18 18 18 19 19 18 17 16
11 10 10 10 10 10 10 10 10 10 10 10 10 11 11 11 12 12 12 12 12 11 11 11 11 12 12 12 12 13 14 15 16 17 18 18 18 18 18 19 18 18 17
10 10 10 10 10 9 10 10 10 10 10 10 11 11 12 12 12 12 11 11 11 11 11 11 11 11 12 12 13 14 14 15 16 17 17 18 18 18 18 18 18 19 18
9 9 9 10 10 10 10 10 10 10 11 11 11 12 12 12 12 11 11 11 10 10 11 11 11 12 12 13 14 14 15 16 16 17 18 18 19 19 19 19 19 19 19
9 9 9 9 10 10 10 10 10 10 11 11 11 11 11 11 11 11 11 11 11 11 11 11 12 12 13 13 14 15 15 15 16 17 17 18 19 19 19 19 19 19 19
9 9 9 9 9 9 9 9 9 9 10 10 10 10 10 11 11 11 11 11 11 11 11 12 12 13 13 14 14 14 15 15 16 17 18 18 19 19 19 19 20 20 20
10 10 10 10 9 9 9 9 9 9 9 10 10 10 10 10 11 11 11 11 11 11 12 12 12 13 13 14 14 14 15 15 16 17 17 18 19 19 19 20 20 20 20

GEFSGL_500_meanwind_078.txt.gz
Wind_Speed
44 43 44 44 45 45 46 45 45 44 44 45 46 47 49 51 52 53 54 54 55 57 58 60 61 61 61 62 62 62 63 62 62 62 63 63 63 64 64 63 63 62 61
44 43 43 43 43 44 44 44 45 46 47 48 48 50 52 53 55 55 55 57 58 59 60 60 61 62 62 61 61 61 61 60 60 60 61 62 62 62 62 61 60 60 59
42 43 43 43 42 43 45 46 46 47 48 50 51 52 53 54 56 57 58 58 59 59 59 59 59 59 59 59 59 58 58 58 58 58 58 58 59 59 58 58 58 58 57
38 39 40 41 42 43 43 44 45 47 49 50 51 52 53 54 55 56 57 57 57 58 58 58 57 57 57 57 56 56 55 55 55 54 54 53 53 53 53 52 51 51 49
35 36 37 38 39 41 41 43 44 46 47 48 50 51 53 54 55 56 57 57 57 57 56 55 55 55 54 53 53 52 51 51 50 49 48 48 47 46 45 43 41 40 40
32 34 35 37 38 39 40 42 43 45 47 49 50 51 52 53 54 54 55 55 54 54 53 52 52 52 51 49 47 46 45 44 43 42 41 39 38 37 35 34 32 31 30
30 31 32 34 35 37 39 41 42 44 46 48 49 51 52 53 53 54 53 52 51 50 49 48 47 45 43 42 40 40 38 37 36 34 32 31 30 28 27 26 25 25 24
29 30 31 33 35 36 38 39 41 43 45 47 49 50 50 51 50 50 49 48 46 45 43 41 40 38 36 35 34 32 31 29 27 26 25 24 23 22 22 21 20 20 20
29 30 31 32 33 35 36 38 40 42 44 45 46 45 45 45 45 43 42 41 39 38 36 34 33 32 30 28 26 25 23 23 21 20 19 18 18 18 18 18 17 18 18
28 29 30 31 32 33 34 36 38 39 41 41 41 40 40 39 37 36 35 33 31 29 28 27 26 25 23 21 20 19 18 18 17 17 16 15 15 15 15 16 16 16 17
27 27 28 29 30 31 32 33 35 35 36 35 34 34 33 32 30 29 28 26 25 24 23 21 20 18 17 16 15 14 14 14 14 14 14 14 14 14 15 15 16 17 17
24 25 26 27 28 29 29 30 29 29 29 29 29 28 28 27 26 25 24 23 21 19 17 16 14 13 12 11 11 11 11 11 11 12 13 13 13 14 15 16 16 17 17
22 23 25 25 26 26 26 26 26 25 25 25 25 25 24 23 22 21 20 18 16 14 12 11 10 10 9 9 9 10 11 11 12 12 13 14 14 15 16 16 16 16 16
22 23 23 24 24 23 23 23 23 23 23 22 22 21 20 19 17 17 15 14 12 11 10 9 9 10 9 10 10 11 11 12 12 13 14 15 15 16 16 16 16 16 15
21 21 22 21 21 21 21 21 21 20 20 19 19 18 17 15 14 13 12 11 11 10 10 10 10 10 11 11 12 12 12 13 14 15 16 16 17 16 16 16 16 16 15
19 19 19 19 18 18 18 17 17 17 17 16 16 15 13 12 11 11 11 11 11 11 11 11 11 12 12 12 12 13 14 14 15 16 16 17 17 17 17 16 16 16 16
17 17 17 16 16 15 15 15 15 14 13 13 12 12 11 10 10 10 11 11 11 11 11 12 12 12 13 13 13 14 14 15 16 16 17 17 17 17 17 17 17 17 16
15 14 14 13 13 13 13 13 12 12 11 10 10 10 10 10 10 10 11 11 11 12 12 13 13 13 13 13 14 14 15 16 16 17 17 17 18 18 18 17 17 16 16
12 12 11 11 11 11 11 10 10 9 9 9 9 10 10 10 10 11 11 11 11 12 13 13 13 13 13 14 14 15 15 16 16 16 17 18 18 18 18 18 17 17 17
10 10 10 10 10 10 9 9 9 9 9 8 9 9 10 10 10 10 11 11 12 12 13 13 13 13 14 14 14 15 15 16 16 17 17 17 18 17 18 18 17 17 17
9 9 9 9 9 9 8 8 8 8 8 8 9 9 10 10 10 10 11 11 12 12 13 13 13 13 14 15 15 15 15 16 16 17 17 17 17 17 17 17 17 17 17
8 8 8 8 8 8 8 7 7 8 8 8 9 9 10 10 10 11 11 12 12 12 13 13 13 14 14 15 15 16 16 16 17 17 17 17 17 17 17 17 18 18 17
7 7 8 8 8 7 7 7 7 8 8 8 9 9 10 10 10 11 11 11 12 12 13 14 14 14 15 15 15 16 16 16 17 17 17 17 17 18 18 17 18 18 18
7 7 8 8 8 7 7 7 7 7 8 8 9 9 10 10 10 11 11 11 12 13 13 14 14 14 15 15 15 16 16 17 17 17 17 17 17 18 18 18 18 17 17
8 8 8 9 8 8 8 8 8 8 8 9 9 10 10 10 11 11 11 11 12 13 13 14 14 15 15 15 16 16 16 16 17 17 17 17 17 18 18 18 18 18 18
9 9 9 9 9 9 9 9 9 9 9 9 10 10 10 11 11 11 11 12 12 13 13 14 14 15 15 15 16 16 16 17 17 17 17 17 17 18 18 18 18 18 19

GEFSGL_500_meanwind_084.txt.gz
Wind_Speed
40 41 42 43 44 45 46 46 45 45 45 46 46 46 46 45 45 44 45 46 47 48 49 51 52 53 54 55 56 56 56 57 57 58 59 59 60 60 60 60 62 63 64
40 41 41 43 43 44 45 46 45 45 45 46 45 45 45 46 46 46 47 49 50 51 52 53 54 54 55 55 55 55 55 55 55 55 56 56 56 56 56 56 57 58 57
39 40 40 40 41 42 42 42 43 43 44 44 44 45 45 46 46 46 48 49 51 52 52 52 52 52 52 52 52 51 52 52 52 51 51 51 51 51 51 50 49 48 48
39 39 39 40 40 40 40 40 40 41 41 42 42 43 44 45 46 46 48 49 50 50 49 49 49 49 49 49 49 48 48 47 46 46 46 46 46 46 44 43 42 42 41
36 36 37 38 38 38 38 38 38 38 39 40 41 42 43 44 44 45 46 46 46 46 46 46 45 45 45 44 44 43 42 42 42 41 41 41 39 38 38 37 37 36 36
33 33 34 34 34 34 34 35 36 37 37 38 39 40 41 42 42 42 43 43 42 42 41 41 41 40 39 38 37 37 37 36 36 35 35 34 34 34 33 32 31 30 30
30 30 30 30 31 32 33 33 34 35 35 36 37 37 37 37 37 38 38 38 37 37 37 37 36 35 34 33 32 31 30 30 30 29 29 29 29 29 27 27 26 26 26
27 27 27 28 30 31 32 32 33 33 34 34 34 33 34 34 34 34 34 34 35 35 34 33 32 30 29 28 27 26 26 26 25 25 25 25 24 24 24 24 23 23 23
25 26 26 27 28 29 29 30 30 30 30 30 31 31 31 31 31 32 32 32 31 30 29 27 26 25 24 23 22 22 22 21 21 20 20 20 20 20 20 20 20 20 20
24 24 25 25 26 26 26 27 28 28 28 28 28 28 28 28 29 29 28 28 26 25 24 23 23 22 21 19 19 19 18 18 18 17 17 17 18 18 17 17 17 18 18
22 22 23 23 24 24 24 25 26 26 26 26 26 26 26 26 25 24 24 23 22 22 21 20 19 18 18 17 17 16 16 15 15 15 15 15 15 15 15 15 16 16 16
20 20 21 21 22 22 23 23 23 23 23 23 23 23 23 22 21 21 20 20 20 19 18 17 16 15 15 14 14 14 13 13 13 13 14 14 14 14 14 15 15 15 15
18 19 20 20 20 21 21 21 21 21 21 21 21 20 19 18 18 17 17 16 15 14 14 13 13 13 13 13 13 12 12 13 13 12 13 13 14 14 14 14 15 15 14
17 17 18 19 19 19 19 19 19 19 18 18 17 17 16 15 14 14 13 13 12 11 11 12 12 12 12 12 12 12 12 12 12 13 13 13 14 14 14 14 14 14 14
15 16 16 16 16 16 17 17 17 16 15 15 14 13 12 12 11 11 11 10 10 10 10 11 11 11 11 11 11 12 12 12 12 13 13 14 14 14 14 14 13 13 13
14 14 14 14 14 14 14 14 14 13 12 11 11 10 9 9 9 9 9 9 9 9 10 11 11 11 11 11 12 12 12 12 13 13 13 14 14 13 13 13 13 13 13
12 12 12 12 12 12 12 11 11 10 9 9 8 7 7 7 8 8 8 8 9 9 9 10 10 11 11 12 12 13 13 13 13 13 13 13 13 12 12 12 13 13 13
10 10 10 10 10 9 9 9 8 8 7 6 5 6 6 7 7 7 7 8 8 9 9 9 10 11 11 12 12 12 13 13 13 13 13 13 12 12 12 12 12 12 12
8 8 8 8 8 7 7 7 7 6 5 5 5 6 6 7 7 7 7 8 8 8 8 9 10 11 11 12 12 12 12 13 13 12 13 13 12 12 12 11 12 12 13
7 7 7 7 7 7 6 6 6 5 5 5 5 6 6 6 7 7 8 8 8 8 9 9 10 11 11 12 12 12 12 13 13 13 12 13 12 12 12 12 12 12 12
6 6 6 6 6 6 6 6 5 5 5 5 5 6 6 6 7 8 8 8 8 9 9 10 10 11 11 11 12 12 12 13 13 13 13 13 13 12 12 12 12 12 12
6 6 6 6 6 6 6 5 5 5 5 6 6 6 6 6 7 7 8 8 9 10 10 11 11 11 12 12 12 13 13 13 13 13 13 13 13 13 13 13 12 13 13
6 6 6 7 6 6 6 6 6 6 6 6 6 6 6 7 7 7 8 8 9 10 10 11 11 11 12 13 13 13 13 13 12 13 13 13 13 13 13 13 13 13 13
6 7 7 7 7 7 7 7 6 6 6 6 6 6 7 7 7 7 8 9 9 10 10 11 11 12 12 13 13 13 13 13 13 13 13 13 13 14 14 14 14 14 14
7 7 7 7 7 7 7 7 7 7 7 7 7 7 7 7 7 8 8 9 9 10 11 11 12 12 13 13 13 14 13 13 13 13 13 13 14 14 14 15 15 15 15
9 8 8 8 7 7 7 7 7 7 7 7 7 7 8 8 8 8 9 9 10 10 11 12 12 13 14 14 14 14 14 14 14 14 14 14 14 15 15 16 16 16 17

GEFSGL_500_meanwind_090.txt.gz
Wind_Speed
37 38 38 39 41 42 42 42 43 43 43 44 44 44 44 44 44 45 45 45 47 47 47 46 46 47 47 46 46 46 47 48 49 50 51 51 51 52 53 54 54 55 56
37 37 38 39 39 40 41 41 42 43 43 44 44 45 45 45 45 46 46 45 46 45 45 45 45 45 46 47 47 47 48 48 49 49 50 50 50 51 50 51 52 53 53
37 37 38 39 39 40 41 42 42 42 43 43 43 43 43 44 44 43 43 43 44 43 43 43 44 45 46 46 46 46 47 47 47 47 46 46 46 47 47 47 48 48 48
37 38 39 39 40 40 41 41 42 42 42 42 41 41 41 42 41 41 41 41 42 42 42 42 42 42 42 42 43 43 43 43 42 42 42 41 41 41 41 41 41 41 40
36 37 38 38 38 38 38 39 40 40 40 40 39 39 39 39 39 38 38 38 38 39 38 38 38 38 39 39 39 39 38 37 37 36 36 36 36 36 36 36 36 35 34
34 35 36 36 36 36 36 36 36 36 36 36 36 36 36 36 36 36 36 36 36 36 36 36 35 35 35 34 33 32 32 32 32 32 32 32 32 32 32 32 31 30 30
32 32 33 33 33 33 32 32 33 33 33 33 33 33 33 34 34 34 34 34 34 33 33 32 31 30 31 31 30 29 29 30 30 29 29 29 29 29 29 28 28 28 27
29 29 29 29 29 28 28 29 29 30 29 30 30 31 31 31 32 32 32 31 31 30 29 28 28 29 29 28 28 28 28 28 27 28 28 27 27 27 26 26 25 25 25
26 26 26 24 24 24 24 26 26 26 27 28 28 28 29 29 30 29 28 27 26 25 26 26 26 27 26 26 26 26 26 26 25 24 24 23 23 23 23 23 23 22 22
22 22 22 21 22 23 24 24 24 25 26 26 26 26 26 26 25 24 24 23 23 24 24 24 24 24 24 24 23 23 23 22 21 20 19 19 20 20 20 20 20 19 19
19 20 20 20 20 21 22 22 23 23 23 23 23 23 23 23 22 22 22 22 22 22 21 21 21 21 21 20 19 19 19 18 17 16 16 17 17 17 18 18 17 17 17
18 18 18 19 19 20 21 21 21 21 21 21 22 22 21 21 20 20 20 19 19 19 19 18 18 18 17 16 15 16 16 15 15 14 14 15 15 16 16 16 16 16 16
17 18 18 18 19 19 19 19 19 19 19 20 20 20 19 19 18 18 17 17 17 16 16 15 15 15 14 13 13 14 14 13 13 13 13 13 14 14 15 15 15 15 15
16 16 17 17 17 17 17 17 17 17 18 18 17 16 16 15 15 14 14 14 14 13 13 13 13 13 13 13 13 13 13 12 12 13 13 13 13 13 13 14 14 14 15
13 14 14 15 15 15 15 15 15 15 15 15 14 13 13 12 12 12 12 11 11 11 11 11 11 12 12 13 12 12 12 12 12 12 12 12 13 13 13 13 13 13 14
11 12 13 13 13 13 13 13 13 13 13 12 11 11 10 10 10 10 10 9 9 10 10 10 10 11 12 12 12 12 12 12 12 12 12 12 12 12 12 12 13 13 14
10 10 11 11 11 10 11 11 10 10 10 9 9 8 8 9 9 9 9 9 9 9 9 9 10 11 11 11 11 11 11 11 11 11 11 11 11 11 11 11 12 12 13
9 9 9 9 9 9 9 9 8 8 8 8 8 7 8 9 9 9 8 9 9 9 9 10 10 11 11 11 11 11 11 10 10 10 10 10 10 10 10 10 11 12 12
8 8 8 9 8 8 8 7 7 7 7 8 8 8 9 9 8 8 8 8 9 9 10 10 11 11 11 11 11 10 11 11 10 10 10 9 9 9 10 10 10 11 12
7 7 8 8 8 7 7 6 6 7 7 7 8 8 8 8 8 8 9 9 10 10 11 11 11 11 11 11 10 10 11 10 10 9 9 8 8 9 9 9 10 10 11
7 7 8 8 8 7 7 7 7 7 7 7 7 7 8 8 8 9 9 10 10 11 11 11 11 10 10 10 10 10 10 9 9 9 9 9 9 9 9 9 9 10 11
7 7 7 7 7 7 7 7 7 7 7 7 7 7 8 8 9 9 10 10 11 11 11 11 11 11 11 11 11 10 10 9 9 8 9 8 9 9 9 9 9 10 10
6 7 7 8 8 8 8 8 8 8 7 7 8 8 8 9 9 10 10 10 11 11 11 11 11 11 11 11 11 10 10 9 9 9 9 9 9 9 9 9 10 10 11
7 8 8 9 9 8 8 8 8 8 8 8 8 9 9 9 10 10 10 10 11 11 11 11 11 12 12 11 11 11 10 10 10 10 10 10 10 10 10 10 11 11 12
9 9 9 9 9 9 9 9 9 9 8 9 9 9 9 10 10 10 11 11 11 11 12 12 12 12 12 12 12 12 11 11 11 11 11 11 12 12 12 13 13 13 14
10 10 10 9 9 9 9 9 9 9 9 9 9 10 10 10 10 11 11 11 12 12 12 12 13 13 13 13 13 13 13 13 12 12 12 13 13 13 14 15 15 16 16

GEFSGL_500_meanwind_096.txt.gz
Wind_Speed
31 32 33 34 34 34 35 35 36 37 38 39 39 39 39 39 40 41 41 42 42 43 43 42 42 43 43 44 44 44 45 45 46 47 48 49 50 50 51 51 51 50 50
32 33 33 34 34 35 36 36 37 38 39 39 39 39 39 39 40 40 41 42 42 41 41 41 42 42 42 43 44 44 44 44 44 45 46 46 47 47 47 46 45 44 44
32 33 33 34 34 35 35 36 37 38 39 39 39 40 40 40 40 41 41 40 40 40 40 41 41 42 42 43 43 43 43 43 43 43 42 42 42 42 42 43 43 42 41
31 32 33 34 34 35 36 36 37 37 37 37 38 38 38 39 39 39 39 38 39 39 39 39 39 40 40 40 40 40 40 39 39 39 39 39 39 39 39 39 39 38 38
29 30 31 32 34 34 34 34 34 35 35 36 36 36 36 36 36 36 36 37 37 38 37 37 37 38 38 37 37 36 36 36 36 37 37 37 36 36 36 35 35 35 35
26 27 29 30 30 30 31 32 32 33 33 33 33 34 34 34 34 34 35 35 34 35 35 35 35 34 33 33 33 33 33 33 33 33 33 33 33 33 32 32 32 31 31
26 27 27 27 27 28 29 30 30 30 30 30 31 31 32 31 31 31 31 31 31 31 31 30 30 30 30 30 29 29 29 29 30 30 29 29 29 29 29 28 28 28 26
24 24 25 25 26 27 27 27 27 27 28 28 29 29 28 28 28 28 28 28 28 28 27 27 27 27 27 26 26 26 26 27 27 27 27 26 26 26 24 24 23 23 22
22 23 23 24 24 24 24 24 24 24 25 26 26 25 25 25 25 26 26 25 25 25 25 25 24 24 23 23 24 24 25 25 24 24 24 23 22 21 20 19 19 19 18
21 22 22 22 21 21 21 22 22 23 23 23 23 23 23 23 23 23 23 23 23 23 22 22 22 22 22 22 22 22 22 21 21 21 20 18 17 16 16 16 16 16 16
18 18 19 19 19 20 20 20 20 21 21 21 21 21 21 21 21 21 21 21 21 20 20 20 20 20 20 19 19 18 18 17 17 16 16 15 14 14 14 14 14 14 14
15 16 17 17 18 18 18 18 19 19 19 19 19 19 19 19 19 18 18 18 17 17 18 18 18 17 17 17 16 15 15 14 14 14 13 13 13 13 13 13 13 13 13
13 14 14 15 15 15 16 16 16 16 16 16 16 17 17 17 16 16 16 16 15 15 15 15 15 15 13 13 12 13 12 12 12 12 12 11 12 12 12 12 12 13 13
12 12 13 13 13 13 13 13 13 13 13 13 14 14 14 14 13 13 13 13 13 13 13 13 13 11 11 11 11 11 11 11 11 11 11 11 11 11 11 12 12 13 13
10 11 11 12 12 12 12 12 11 11 11 11 12 12 12 12 11 10 10 9 9 10 11 11 11 11 11 11 11 10 10 10 10 10 10 11 11 11 11 11 12 13 13
9 9 10 10 10 10 10 10 10 10 10 10 10 10 10 9 8 8 8 8 9 10 10 10 10 11 11 11 11 11 10 10 10 10 10 10 10 9 10 11 12 13 13
7 8 9 9 9 9 8 8 9 8 8 9 9 9 8 8 7 8 8 8 9 9 10 10 10 10 11 11 10 10 10 9 9 9 9 9 8 9 9 10 11 12 12
7 7 8 7 7 7 7 7 7 7 7 7 8 8 7 7 7 7 7 8 9 9 10 10 10 10 10 10 9 9 9 9 8 8 8 8 8 8 9 10 10 11 12
6 6 7 7 7 6 6 6 6 7 7 7 7 7 7 7 7 8 8 9 9 10 10 10 10 10 10 9 9 8 8 8 8 8 8 7 7 8 9 9 10 11 11
6 6 6 6 6 6 6 6 6 7 7 7 7 7 7 8 8 8 8 9 9 10 10 10 10 9 9 9 8 8 7 7 7 7 7 7 7 8 8 9 10 11 11
6 6 6 6 6 6 6 7 7 7 7 7 7 7 8 8 8 8 9 9 9 10 10 10 10 10 9 9 8 7 7 7 7 7 7 7 7 8 9 9 10 10 11
7 7 7 7 7 7 7 7 7 7 7 7 8 8 8 8 8 9 9 9 9 10 10 10 10 10 9 9 8 8 7 7 7 7 8 8 8 8 9 10 10 11 11
8 8 8 7 8 8 8 8 8 8 8 8 8 9 9 9 9 9 9 9 10 10 10 11 10 10 10 9 9 8 8 8 8 9 9 9 9 9 10 11 11 11 12
9 8 8 8 8 9 9 9 9 9 9 9 9 9 9 9 9 10 10 10 10 11 11 11 11 11 11 10 10 10 9 9 10 10 10 11 11 11 12 12 13 13 13
11 10 10 9 10 10 10 10 10 10 9 9 9 9 10 10 10 10 11 11 11 12 12 12 12 12 12 12 12 11 11 11 11 11 12 13 13 14 14 14 14 14 14
13 12 11 11 11 11 11 11 11 10 10 10 10 10 10 10 10 11 11 11 12 12 12 12 13 13 13 13 13 13 13 13 13 14 14 15 15 16 16 15 15 15 15

GEFSGL_500_meanwind_102.txt.gz
Wind_Speed
27 28 28 28 29 30 30 31 32 33 34 35 35 35 35 36 36 36 36 36 37 38 39 40 41 42 42 42 43 43 44 44 45 45 46 46 47 46 47 47 48 48 48
28 28 29 29 29 29 30 31 32 33 33 33 34 34 35 36 36 36 37 37 37 38 39 39 40 40 41 41 41 41 42 42 42 43 43 43 44 44 44 44 45 45 45
26 27 28 28 28 29 30 30 31 32 33 33 33 34 34 35 35 36 36 36 37 37 38 38 38 38 38 38 38 39 39 39 40 40 40 40 40 40 41 41 41 41 41
24 25 26 26 27 27 28 29 30 31 32 32 32 33 33 34 34 34 35 35 36 36 36 36 35 35 35 36 37 37 36 37 37 36 36 36 37 37 37 37 37 37 38
22 23 24 25 26 27 27 28 29 29 30 30 31 31 31 31 32 33 33 33 33 33 32 33 33 34 34 34 35 35 35 34 33 33 33 33 33 33 33 34 34 34 34
21 22 23 23 24 25 26 26 27 27 27 28 28 28 29 29 30 31 30 30 30 30 31 31 32 32 32 33 33 33 33 31 30 31 31 31 31 31 32 32 31 30 30
20 21 22 22 22 23 23 24 24 25 25 26 26 27 27 28 28 27 27 27 27 27 28 29 30 30 30 29 30 29 29 29 29 29 29 28 28 29 28 28 27 25 25
18 19 19 20 20 21 22 23 23 23 24 24 24 24 24 25 25 25 25 25 25 26 25 25 25 25 25 25 25 25 26 25 25 25 25 24 24 23 23 22 22 22 22
17 17 17 18 18 19 20 21 21 21 21 21 22 22 23 23 23 23 23 23 23 23 23 22 22 22 22 22 22 22 22 21 21 21 20 20 20 19 19 18 18 18 18
16 16 17 17 17 18 18 19 19 19 19 19 20 19 20 20 20 20 20 20 20 20 20 20 20 20 20 20 20 20 19 19 18 18 17 16 16 15 15 15 15 14 15
15 15 15 15 16 17 17 18 17 17 17 18 18 18 18 18 18 18 17 17 17 17 18 18 18 18 18 18 18 17 17 16 15 14 14 13 13 13 13 12 12 12 12
13 13 14 14 15 15 15 15 16 16 16 16 16 16 15 15 15 15 15 15 15 16 16 16 16 16 16 16 16 15 14 13 12 12 11 11 11 11 10 10 10 11 11
11 11 12 13 13 14 14 14 14 14 14 13 13 13 14 14 14 14 14 14 14 14 15 15 15 15 15 14 13 12 12 11 11 10 10 10 9 9 9 9 9 10 10
10 10 11 11 12 12 12 12 12 12 12 12 12 12 12 12 12 12 12 12 12 12 12 12 12 12 12 12 11 11 11 10 9 9 8 8 7 7 7 8 8 9 9
9 9 10 10 10 11 11 11 11 11 11 10 10 10 10 10 10 10 9 10 10 11 11 11 11 11 11 11 10 10 9 8 8 7 6 6 6 6 6 7 7 8 9
7 8 8 9 9 10 10 10 10 10 9 9 8 8 8 8 8 8 8 9 10 10 11 11 11 10 10 10 9 8 8 7 6 6 5 5 5 5 6 6 7 7 8
6 7 8 8 9 9 9 9 9 9 8 8 8 8 8 8 8 8 9 9 10 10 10 10 10 9 9 8 8 7 6 6 5 5 5 4 4 5 5 6 6 7 8
6 7 7 8 8 8 8 8 8 8 7 7 7 8 8 8 9 9 9 9 9 9 9 10 9 8 8 7 7 6 5 4 4 4 4 4 4 4 5 6 6 7 8
7 7 7 8 8 8 8 8 7 7 7 7 7 8 8 8 9 9 9 9 9 9 9 9 9 8 7 7 6 5 4 4 4 4 4 4 4 4 5 6 7 8 9
7 7 7 8 8 8 8 8 8 8 8 8 8 8 8 9 9 9 9 9 9 9 9 8 8 8 7 6 6 5 4 4 4 4 4 4 5 5 6 7 8 9 10
8 8 8 8 9 9 9 9 9 9 9 9 9 9 9 9 10 10 9 9 9 9 9 9 8 7 7 6 5 5 5 5 5 5 5 6 6 7 8 8 9 10 11
9 9 9 10 10 10 10 10 10 10 9 9 9 10 10 10 10 10 10 10 10 10 9 9 8 8 7 6 6 6 6 7 7 7 7 7 8 9 9 10 10 11 12
9 10 10 10 10 11 11 11 11 11 11 10 11 11 11 11 11 12 11 11 11 11 10 10 10 9 8 8 8 8 8 8 9 9 9 9 10 10 10 11 11 12 12
11 11 11 11 11 12 12 12 11 11 11 11 11 12 12 12 12 12 12 12 12 12 12 11 11 11 11 10 10 10 10 10 10 10 10 11 11 11 11 11 12 12 13
14 13 13 13 12 12 12 12 12 12 12 12 12 13 13 13 13 13 13 13 13 13 13 12 12 12 12 12 12 12 12 12 12 12 12 12 12 12 12 12 12 12 12
15 14 14 13 13 13 13 12 12 12 12 13 13 13 13 13 13 13 13 14 14 13 13 13 13 13 13 13 13 13 13 13 13 13 13 13 12 12 12 12 12 12 12

GEFSGL_500_meanwind_108.txt.gz
Wind_Speed
31 31 32 31 30 29 29 29 30 29 29 30 32 32 33 33 33 34 34 35 36 37 38 39 40 40 40 40 40 41 42 43 44 44 44 44 44 45 45 45 45 45 45
29 29 29 29 29 29 29 29 29 28 29 30 31 32 32 32 32 34 35 35 36 37 38 38 39 38 38 39 40 41 41 41 42 42 42 42 42 42 42 42 42 43 43
26 27 27 27 27 27 27 28 28 28 29 29 29 29 30 31 32 33 33 34 35 35 36 36 36 37 37 38 38 38 39 39 39 39 40 40 39 39 40 40 40 41 41
24 24 24 24 25 25 26 27 27 27 27 27 28 29 30 31 31 32 33 33 34 34 34 34 35 35 35 35 35 35 36 36 36 36 36 36 36 36 37 37 37 37 36
22 22 22 23 23 24 24 25 25 25 25 26 26 27 28 29 30 31 31 31 31 31 31 32 32 32 32 32 32 32 32 32 32 33 33 33 33 34 34 34 34 33 32
20 20 20 21 21 21 21 21 22 23 24 24 25 26 26 27 27 27 28 28 28 29 30 30 30 30 30 30 31 31 31 30 30 29 30 30 30 30 29 29 29 28 27
17 18 18 19 19 19 19 20 21 22 22 23 23 24 25 25 25 25 25 26 26 27 27 28 28 28 28 28 27 27 27 27 27 27 27 27 26 26 26 25 24 23 22
16 16 15 15 16 17 18 18 18 18 19 20 21 22 22 23 23 23 24 24 24 24 24 24 24 25 25 25 25 24 24 24 24 24 23 23 22 22 21 20 19 19 18
14 14 14 15 15 15 15 15 16 17 18 18 19 19 20 20 20 21 21 21 21 21 21 21 21 21 22 22 22 22 22 22 22 21 20 19 18 17 16 15 15 15 15
13 13 13 13 14 14 14 14 15 16 16 17 17 17 18 19 19 20 20 19 19 19 19 19 19 19 20 20 19 19 19 19 18 18 17 15 14 13 13 12 11 11 11
12 12 13 13 13 13 13 14 14 15 15 15 16 16 17 17 17 17 17 17 17 17 17 18 17 17 18 17 17 16 16 16 15 14 12 11 10 10 9 9 8 8 8
10 11 11 11 12 12 12 12 13 13 14 14 14 15 15 15 16 16 15 15 15 15 15 15 15 15 15 14 14 14 13 12 11 10 9 8 7 7 6 6 6 6 6
8 9 9 10 10 10 11 11 12 12 12 12 13 13 13 13 14 14 14 13 13 13 13 13 13 12 12 12 11 10 9 8 7 7 6 6 5 5 5 5 5 5 6
6 7 7 8 8 9 10 10 10 10 10 10 11 11 11 11 11 11 11 10 10 10 11 11 11 11 10 9 8 7 6 6 5 5 4 4 4 3 3 3 3 4 6
6 6 7 7 7 8 8 8 8 8 8 8 9 9 9 9 9 9 9 10 10 10 9 9 9 8 7 7 7 6 5 4 3 3 2 2 2 2 2 2 3 4 5
5 5 6 6 6 6 6 6 6 6 7 7 7 7 7 7 7 7 8 8 8 7 7 7 7 6 6 6 5 4 3 3 2 1 1 1 0 0 1 2 3 4 4
3 3 4 4 4 4 5 5 5 5 6 6 5 5 6 6 6 6 6 6 6 6 6 6 6 5 5 5 4 3 2 1 1 1 1 1 1 1 2 3 3 4 5
2 3 4 4 4 4 4 5 5 5 5 4 5 5 5 6 6 6 6 5 5 5 5 5 4 4 4 3 3 2 1 0 1 1 2 2 3 3 3 3 4 5 5
3 4 4 4 4 4 4 5 5 4 4 4 4 5 5 5 5 5 5 5 5 5 4 4 3 3 3 3 2 1 1 1 2 2 3 3 4 4 4 4 5 5 6
5 5 5 6 6 6 6 6 5 5 5 6 6 6 6 5 5 5 5 5 5 5 4 4 3 3 3 2 2 2 2 3 3 4 4 5 5 5 5 5 5 6 6
8 8 7 8 8 8 8 8 8 7 7 7 7 7 7 7 7 7 7 6 6 5 5 5 4 4 4 3 4 4 4 4 5 5 6 6 6 6 6 6 6 6 6
9 9 10 10 10 10 10 10 10 10 9 9 9 9 8 8 8 8 8 8 7 7 7 6 5 5 5 5 5 5 6 6 6 7 7 7 7 7 7 6 6 6 6
11 11 11 11 11 11 11 11 11 11 11 11 10 10 10 10 10 9 9 9 9 9 8 8 8 7 7 7 7 7 7 7 7 7 7 7 7 7 6 6 6 6 6
13 13 12 12 12 12 12 11 11 11 11 11 11 11 11 11 11 11 11 11 11 10 10 9 9 9 8 8 8 7 7 7 7 7 7 7 7 6 6 6 5 5 6
14 13 13 13 12 12 12 12 12 12 12 12 12 12 12 12 12 12 12 12 12 11 11 11 10 10 9 9 8 8 8 8 8 8 7 7 6 6 5 5 5 5 6
14 14 13 13 13 12 12 12 12 12 12 12 12 11 11 11 11 11 12 12 12 12 11 11 11 11 10 9 9 9 9 8 8 7 7 6 6 5 5 4 5 5 6